KE7RQW Weather Reports


time (UTC)temp
F
wind
direction
speed
knots
gust
knots
rain 1hr
in
rain 24hr
in
rain mn
in
humidity
%
barometer
mb
20191016173339 65 268 19.1 28.7 0.00 0.00 0.00 18 1031.2
20191016173235 64 275 19.1 28.7 0.00 0.00 0.00 18 1030.9
20191016173137 64 290 19.1 28.7 0.00 0.00 0.00 18 1031.2
20191016173032 64 311 23.5 28.7 0.00 0.00 0.00 19 1031.2
20191016172936 64 275 22.6 28.7 0.00 0.00 0.00 19 1031.1
20191016172832 64 266 23.5 28.7 0.00 0.00 0.00 19 1031.1
20191016172737 64 298 19.1 28.7 0.00 0.00 0.00 19 1031.2
20191016172633 64 287 16.5 30.4 0.00 0.00 0.00 19 1031.3
20191016172534 64 291 16.5 31.3 0.00 0.00 0.00 19 1031.3
20191016172430 64 284 21.7 31.3 0.00 0.00 0.00 18 1031.3
20191016172331 64 280 25.2 31.3 0.00 0.00 0.00 19 1031.3
20191016172227 64 272 19.1 31.3 0.00 0.00 0.00 19 1031.3
20191016172132 64 272 18.2 31.3 0.00 0.00 0.00 19 1031.4
20191016172028 64 273 22.6 31.3 0.00 0.00 0.00 19 1031.3
20191016171930 64 263 20.0 31.3 0.00 0.00 0.00 18 1031.4
20191016171825 64 284 22.6 31.3 0.00 0.00 0.00 18 1031.4
20191016171727 64 288 24.3 31.3 0.00 0.00 0.00 18 1031.3
20191016171641 64 272 22.6 29.5 0.00 0.00 0.00 18 1031.4
20191016171525 64 286 26.1 29.5 0.00 0.00 0.00 18 1030.5
20191016171425 64 281 20.0 28.7 0.00 0.00 0.00 19 1030.6
20191016171326 64 279 20.0 28.7 0.00 0.00 0.00 19 1030.5
20191016171242 64 257 19.1 28.7 0.00 0.00 0.00 19 1030.5
20191016171143 63 277 19.1 28.7 0.00 0.00 0.00 18 1030.5
20191016171039 63 230 22.6 28.7 0.00 0.00 0.00 18 1030.6
20191016170940 63 279 21.7 28.7 0.00 0.00 0.00 18 1030.6
20191016170836 63 273 18.2 28.7 0.00 0.00 0.00 18 1030.6
20191016170741 63 245 21.7 29.5 0.00 0.00 0.00 18 1030.7
20191016170637 63 267 23.5 29.5 0.00 0.00 0.00 19 1030.7
20191016170539 63 287 22.6 29.5 0.00 0.00 0.00 19 1030.9
20191016170434 63 287 21.7 29.5 0.00 0.00 0.00 19 1030.8
20191016170335 63 286 17.4 29.5 0.00 0.00 0.00 19 1030.8
20191016170231 63 275 20.9 29.5 0.00 0.00 0.00 19 1030.9
20191016170137 63 279 16.5 29.5 0.00 0.00 0.00 19 1030.9
20191016170031 63 295 19.1 29.5 0.00 0.00 0.00 19 1030.8
20191016165935 63 321 25.2 29.5 0.00 0.00 0.00 19 1030.8
20191016165831 63 284 22.6 29.5 0.00 0.00 0.00 19 1030.8
20191016165731 63 292 20.9 29.5 0.00 0.00 0.00 19 1030.8
20191016165631 63 298 13.9 27.8 0.00 0.00 0.00 19 1030.9
20191016165532 63 279 18.2 27.8 0.00 0.00 0.00 19 1030.8
20191016165431 63 286 20.9 27.8 0.00 0.00 0.00 19 1030.8
20191016165335 63 277 20.9 27.8 0.00 0.00 0.00 19 1030.7
20191016165231 63 292 17.4 26.1 0.00 0.00 0.00 19 1030.8
20191016165132 63 267 11.3 27.8 0.00 0.00 0.00 19 1030.9
20191016165028 63 286 13.0 28.7 0.00 0.00 0.00 19 1030.9
20191016164930 62 291 15.6 28.7 0.00 0.00 0.00 19 1030.9
20191016164829 62 266 16.5 28.7 0.00 0.00 0.00 19 1030.8
20191016164729 62 277 16.5 28.7 0.00 0.00 0.00 19 1030.8
20191016164628 62 238 22.6 28.7 0.00 0.00 0.00 19 1030.8
20191016164528 62 275 19.1 28.7 0.00 0.00 0.00 19 1030.9
20191016164427 62 234 18.2 28.7 0.00 0.00 0.00 19 1030.8
20191016164327 62 238 17.4 28.7 0.00 0.00 0.00 19 1030.9
20191016164226 62 269 21.7 28.7 0.00 0.00 0.00 19 1030.8
20191016164131 62 288 16.5 28.7 0.00 0.00 0.00 19 1030.8
20191016164028 62 279 14.8 28.7 0.00 0.00 0.00 19 1030.9
20191016163929 62 287 19.1 28.7 0.00 0.00 0.00 19 1030.9
20191016163825 62 263 16.5 28.7 0.00 0.00 0.00 19 1030.8
20191016163729 62 246 14.8 28.7 0.00 0.00 0.00 19 1030.9
20191016163625 62 271 21.7 28.7 0.00 0.00 0.00 19 1030.9
20191016163530 62 294 19.1 28.7 0.00 0.00 0.00 19 1030.9
20191016163426 62 273 19.1 28.7 0.00 0.00 0.00 19 1030.9
20191016163327 62 298 17.4 28.7 0.00 0.00 0.00 19 1030.9
20191016163243 62 278 20.0 28.7 0.00 0.00 0.00 19 1030.9
20191016163145 62 253 21.7 28.7 0.00 0.00 0.00 19 1030.9
20191016163040 61 255 21.7 28.7 0.00 0.00 0.00 19 1030.8
20191016162941 61 278 16.5 27.8 0.00 0.00 0.00 19 1030.9
20191016162841 61 279 20.0 27.8 0.00 0.00 0.00 19 1030.9
20191016162742 61 280 22.6 27.8 0.00 0.00 0.00 19 1031.0
20191016162638 61 253 21.7 27.8 0.00 0.00 0.00 20 1031.0
20191016162527 61 285 20.9 26.1 0.00 0.00 0.00 20 1031.1
20191016162427 61 293 14.8 26.1 0.00 0.00 0.00 20 1031.1
20191016162328 61 261 10.4 26.1 0.00 0.00 0.00 20 1031.1
20191016162244 61 291 13.0 26.1 0.00 0.00 0.00 20 1031.1
20191016162128 61 285 16.5 26.1 0.00 0.00 0.00 19 1031.1
20191016162027 61 268 21.7 26.1 0.00 0.00 0.00 19 1031.0
20191016161928 61 271 12.2 27.8 0.00 0.00 0.00 20 1031.2
20191016161844 61 291 10.4 28.7 0.00 0.00 0.00 20 1031.1
20191016161725 61 299 16.5 28.7 0.00 0.00 0.00 20 1031.2
20191016161641 61 277 14.8 28.7 0.00 0.00 0.00 20 1031.2
20191016161526 61 281 14.8 28.7 0.00 0.00 0.00 20 1031.2
20191016161442 61 291 16.5 28.7 0.00 0.00 0.00 20 1031.2
20191016161343 61 280 14.8 28.7 0.00 0.00 0.00 20 1031.3
20191016161239 61 277 14.8 28.7 0.00 0.00 0.00 20 1031.3
20191016161140 61 283 19.1 28.7 0.00 0.00 0.00 19 1031.3
20191016161036 60 283 20.0 28.7 0.00 0.00 0.00 20 1031.4
20191016160937 60 288 14.8 23.5 0.00 0.00 0.00 20 1031.4
20191016160837 60 240 15.6 24.3 0.00 0.00 0.00 20 1031.4
20191016160738 60 280 17.4 26.9 0.00 0.00 0.00 20 1031.4
20191016160632 60 252 17.4 26.9 0.00 0.00 0.00 20 1031.4
20191016160532 60 272 17.4 26.9 0.00 0.00 0.00 20 1031.4
20191016160431 60 257 13.9 26.9 0.00 0.00 0.00 20 1031.6
20191016160332 60 279 17.4 26.9 0.00 0.00 0.00 20 1031.5
20191016160228 60 254 20.9 26.9 0.00 0.00 0.00 20 1031.5
20191016160134 60 250 17.4 26.9 0.00 0.00 0.00 20 1031.7
20191016160029 60 303 19.1 26.9 0.00 0.00 0.00 20 1031.6
20191016155929 60 310 21.7 26.9 0.00 0.00 0.00 19 1031.6
20191016155828 60 270 20.0 26.9 0.00 0.00 0.00 19 1031.7
20191016155729 61 248 19.1 26.1 0.00 0.00 0.00 19 1031.7
20191016155626 61 267 17.4 26.1 0.00 0.00 0.00 19 1031.8
20191016155530 61 279 22.6 26.1 0.00 0.00 0.00 19 1031.7
20191016155429 61 293 18.2 26.9 0.00 0.00 0.00 20 1031.7
20191016155329 61 253 13.0 26.9 0.00 0.00 0.00 20 1031.7
20191016155228 61 261 13.9 26.9 0.00 0.00 0.00 20 1031.8
20191016155128 60 265 16.5 26.9 0.00 0.00 0.00 20 1031.8
20191016155027 60 296 13.0 26.9 0.00 0.00 0.00 20 1031.8
20191016154928 60 265 15.6 26.9 0.00 0.00 0.00 20 1031.9
20191016154828 60 286 15.6 26.9 0.00 0.00 0.00 20 1031.9
20191016154729 60 276 16.5 26.9 0.00 0.00 0.00 20 1031.8
20191016154625 60 264 20.9 26.9 0.00 0.00 0.00 20 1031.7
20191016154526 60 258 20.0 26.9 0.00 0.00 0.00 20 1031.9
20191016154442 60 255 14.8 24.3 0.00 0.00 0.00 20 1031.8
20191016154343 60 275 13.9 24.3 0.00 0.00 0.00 20 1031.9
20191016154240 59 291 17.4 24.3 0.00 0.00 0.00 20 1032.0
20191016154125 59 247 16.5 22.6 0.00 0.00 0.00 20 1032.0
20191016154041 59 268 18.2 22.6 0.00 0.00 0.00 21 1031.8
20191016153942 59 270 18.2 22.6 0.00 0.00 0.00 21 1031.8
20191016153838 59 259 16.5 20.0 0.00 0.00 0.00 21 1031.9
20191016153739 59 273 15.6 20.0 0.00 0.00 0.00 21 1031.8
20191016153635 59 270 13.9 20.0 0.00 0.00 0.00 21 1032.0
20191016153540 59 273 15.6 21.7 0.00 0.00 0.00 21 1032.0
20191016153436 59 285 12.2 21.7 0.00 0.00 0.00 21 1032.1
20191016153337 59 267 12.2 21.7 0.00 0.00 0.00 21 1032.0
20191016153232 59 241 16.5 21.7 0.00 0.00 0.00 20 1032.0
20191016153137 59 266 16.5 23.5 0.00 0.00 0.00 21 1032.0
20191016153032 59 257 16.5 23.5 0.00 0.00 0.00 21 1032.0
20191016152932 59 248 13.9 25.2 0.00 0.00 0.00 21 1032.1
20191016152835 58 254 13.0 25.2 0.00 0.00 0.00 21 1032.1
20191016152736 58 272 17.4 25.2 0.00 0.00 0.00 21 1032.0
20191016152630 58 263 16.5 25.2 0.00 0.00 0.00 21 1032.0
20191016152531 58 260 16.5 25.2 0.00 0.00 0.00 21 1032.1
20191016152427 58 282 15.6 25.2 0.00 0.00 0.00 21 1032.1
20191016152328 58 271 15.6 25.2 0.00 0.00 0.00 21 1032.0
20191016152228 58 284 20.0 25.2 0.00 0.00 0.00 21 1031.9
20191016152129 58 281 20.0 25.2 0.00 0.00 0.00 21 1031.8
20191016152025 58 276 20.0 25.2 0.00 0.00 0.00 21 1031.9
20191016151926 58 279 15.6 25.2 0.00 0.00 0.00 21 1031.8
20191016151842 58 269 18.2 25.2 0.00 0.00 0.00 21 1031.8
20191016151743 58 289 15.6 24.3 0.00 0.00 0.00 21 1031.7
20191016151639 58 280 18.2 24.3 0.00 0.00 0.00 21 1031.8
20191016151544 58 281 16.5 24.3 0.00 0.00 0.00 21 1031.7
20191016151440 58 296 14.8 26.1 0.00 0.00 0.00 21 1031.7
20191016151341 58 295 16.5 26.1 0.00 0.00 0.00 21 1031.7
20191016151237 58 276 19.1 26.1 0.00 0.00 0.00 21 1031.7
20191016151138 58 268 18.2 26.1 0.00 0.00 0.00 21 1031.7
20191016151033 58 290 16.5 26.1 0.00 0.00 0.00 21 1031.6
20191016150937 58 301 14.8 27.8 0.00 0.00 0.00 21 1031.7
20191016150838 58 275 18.2 27.8 0.00 0.00 0.00 21 1031.7
20191016150739 58 301 19.1 27.8 0.00 0.00 0.00 21 1030.8
20191016150635 58 277 20.9 27.8 0.00 0.00 0.00 21 1030.8
20191016150536 58 264 18.2 27.8 0.00 0.00 0.00 21 1030.7
20191016150432 58 294 20.0 27.8 0.00 0.00 0.00 21 1030.8
20191016150333 58 256 19.1 27.8 0.00 0.00 0.00 21 1030.7
20191016150233 58 282 17.4 27.8 0.00 0.00 0.00 21 1030.7
20191016150135 58 253 20.0 27.8 0.00 0.00 0.00 21 1030.8
20191016150030 58 275 20.9 27.8 0.00 0.00 0.00 21 1030.7
20191016145931 58 271 19.1 27.8 0.00 0.00 0.00 21 1030.8
20191016145827 58 281 21.7 27.8 0.00 0.00 0.00 22 1030.7
20191016145728 57 275 16.5 28.7 0.00 0.00 0.00 22 1030.8
20191016145644 57 252 17.4 28.7 0.00 0.00 0.00 22 1030.7
20191016145529 57 275 20.0 28.7 0.00 0.00 0.00 22 1030.7
20191016145425 57 275 13.0 28.7 0.00 0.00 0.00 22 1030.7
20191016145326 57 256 15.6 28.7 0.00 0.00 0.00 22 1030.6
20191016145242 57 276 17.4 28.7 0.00 0.00 0.00 22 1030.7
20191016145143 57 261 15.6 28.7 0.00 0.00 0.00 22 1030.7
20191016145040 57 223 18.2 28.7 0.00 0.00 0.00 22 1030.7
20191016144940 57 298 20.0 28.7 0.00 0.00 0.00 22 1030.7
20191016144840 57 265 21.7 28.7 0.00 0.00 0.00 22 1030.5
20191016144741 57 260 18.2 26.9 0.00 0.00 0.00 22 1030.7
20191016144637 57 267 21.7 26.9 0.00 0.00 0.00 22 1030.6
20191016144538 57 288 21.7 26.9 0.00 0.00 0.00 22 1030.6
20191016144434 57 275 16.5 26.9 0.00 0.00 0.00 22 1030.6
20191016144335 57 273 18.2 26.9 0.00 0.00 0.00 22 1030.7
20191016144232 57 254 21.7 26.9 0.00 0.00 0.00 22 1030.7
20191016144132 57 275 20.0 24.3 0.00 0.00 0.00 22 1030.7
20191016144031 57 252 19.1 24.3 0.00 0.00 0.00 22 1030.8
20191016143931 57 277 19.1 25.2 0.00 0.00 0.00 22 1030.8
20191016143830 57 267 18.2 25.2 0.00 0.00 0.00 22 1030.7
20191016143731 57 263 14.8 25.2 0.00 0.00 0.00 22 1030.7
20191016143628 57 250 17.4 25.2 0.00 0.00 0.00 22 1030.7
20191016143532 56 286 16.5 25.2 0.00 0.00 0.00 22 1030.8
20191016143431 56 306 16.5 25.2 0.00 0.00 0.00 23 1030.7
20191016143331 56 269 14.8 25.2 0.00 0.00 0.00 23 1030.8
20191016143229 56 262 16.5 25.2 0.00 0.00 0.00 23 1030.8
20191016143134 56 284 20.9 25.2 0.00 0.00 0.00 23 1030.7
20191016143029 56 265 16.5 25.2 0.00 0.00 0.00 23 1030.8
20191016142934 55 260 14.8 23.5 0.00 0.00 0.00 23 1030.8
20191016142830 55 240 17.4 23.5 0.00 0.00 0.00 23 1030.8
20191016142729 55 261 16.5 22.6 0.00 0.00 0.00 23 1030.8
20191016142626 55 240 18.2 22.6 0.00 0.00 0.00 23 1030.8
20191016142527 55 271 17.4 21.7 0.00 0.00 0.00 24 1030.9
20191016142443 55 279 17.4 21.7 0.00 0.00 0.00 24 1030.9
20191016142344 55 273 17.4 21.7 0.00 0.00 0.00 24 1030.9
20191016142244 54 276 13.0 20.0 0.00 0.00 0.00 24 1030.9
20191016142145 54 271 13.0 20.0 0.00 0.00 0.00 24 1030.9
20191016142042 54 265 15.6 20.0 0.00 0.00 0.00 24 1030.9
20191016141942 54 250 13.0 17.4 0.00 0.00 0.00 25 1030.9
20191016141838 54 263 12.2 17.4 0.00 0.00 0.00 25 1030.9
20191016141739 54 257 13.9 17.4 0.00 0.00 0.00 25 1031.0
20191016141635 54 271 12.2 17.4 0.00 0.00 0.00 25 1031.0
20191016141540 54 257 11.3 17.4 0.00 0.00 0.00 25 1031.0
20191016141436 54 283 13.0 17.4 0.00 0.00 0.00 25 1031.0
20191016141337 54 263 12.2 17.4 0.00 0.00 0.00 25 1031.0
20191016141233 53 277 13.0 17.4 0.00 0.00 0.00 25 1031.0
20191016141134 53 288 11.3 17.4 0.00 0.00 0.00 25 1031.0
20191016141030 53 260 13.9 17.4 0.00 0.00 0.00 25 1031.0
20191016140935 53 267 12.2 17.4 0.00 0.00 0.00 25 1031.0
20191016140831 53 261 10.4 17.4 0.00 0.00 0.00 25 1031.0
20191016140732 53 265 12.2 17.4 0.00 0.00 0.00 25 1031.0
20191016140628 53 284 9.6 17.4 0.00 0.00 0.00 25 1031.0
20191016140529 53 263 11.3 17.4 0.00 0.00 0.00 25 1031.1
20191016140445 53 275 13.0 17.4 0.00 0.00 0.00 25 1031.0
20191016140326 53 261 14.8 17.4 0.00 0.00 0.00 26 1031.0
20191016140226 53 240 11.3 16.5 0.00 0.00 0.00 26 1031.1
20191016140128 53 255 13.0 16.5 0.00 0.00 0.00 26 1031.1
20191016140043 53 267 12.2 16.5 0.00 0.00 0.00 26 1031.1
20191016135944 53 263 10.4 16.5 0.00 0.00 0.00 26 1031.1
20191016135840 52 269 12.2 16.5 0.00 0.00 0.00 26 1031.1
20191016135741 52 280 9.6 15.6 0.00 0.00 0.00 26 1031.2
20191016135637 52 277 9.6 15.6 0.00 0.00 0.00 26 1031.2
20191016135542 52 248 8.7 15.6 0.00 0.00 0.00 26 1031.2
20191016135438 52 277 9.6 15.6 0.00 0.00 0.00 26 1031.2
20191016135339 52 282 11.3 15.6 0.00 0.00 0.00 27 1031.2
20191016135235 52 277 9.6 15.6 0.00 0.00 0.00 27 1031.2
20191016135136 52 263 13.0 15.6 0.00 0.00 0.00 27 1031.2
20191016135032 51 257 10.4 15.6 0.00 0.00 0.00 27 1031.2
20191016134940 51 275 7.8 13.0 0.00 0.00 0.00 27 1031.2
20191016134836 51 288 8.7 13.0 0.00 0.00 0.00 27 1031.2
20191016134737 51 296 7.0 9.6 0.00 0.00 0.00 27 1031.2
20191016134634 51 281 6.1 9.6 0.00 0.00 0.00 27 1031.3
20191016134535 51 272 3.5 5.2 0.00 0.00 0.00 27 1031.3
20191016134431 51 236 2.6 5.2 0.00 0.00 0.00 27 1031.3
20191016134332 52 306 3.5 5.2 0.00 0.00 0.00 27 1031.3
20191016134232 52 289 2.6 5.2 0.00 0.00 0.00 27 1031.2
20191016134131 52 240 3.5 5.2 0.00 0.00 0.00 27 1031.3
20191016134032 52 268 2.6 4.3 0.00 0.00 0.00 27 1031.3
20191016133932 52 273 2.6 5.2 0.00 0.00 0.00 27 1031.2
20191016133828 52 228 1.7 5.2 0.00 0.00 0.00 27 1031.3
20191016133729 52 242 1.7 5.2 0.00 0.00 0.00 27 1031.2
20191016133629 52 71 1.7 7.0 0.00 0.00 0.00 27 1031.2
20191016133529 52 219 0.9 7.0 0.00 0.00 0.00 27 1031.2
20191016133428 51 265 1.7 7.0 0.00 0.00 0.00 27 1031.2
20191016133329 51 217 3.5 7.0 0.00 0.00 0.00 28 1031.2
20191016133245 51 254 3.5 8.7 0.00 0.00 0.00 28 1031.1
20191016133127 51 269 4.3 8.7 0.00 0.00 0.00 28 1031.2
20191016133042 51 254 3.5 8.7 0.00 0.00 0.00 28 1031.3
20191016132927 51 221 3.5 8.7 0.00 0.00 0.00 28 1031.2
20191016132843 51 244 4.3 8.7 0.00 0.00 0.00 28 1031.3
20191016132744 51 288 4.3 8.7 0.00 0.00 0.00 28 1031.1
20191016132641 51 279 3.5 8.7 0.00 0.00 0.00 28 1031.1
20191016132542 51 256 4.3 8.7 0.00 0.00 0.00 28 1031.2
20191016132438 50 254 4.3 10.4 0.00 0.00 0.00 28 1031.2
20191016132339 50 235 1.7 10.4 0.00 0.00 0.00 29 1031.2
20191016132239 50 239 2.6 10.4 0.00 0.00 0.00 29 1031.2
20191016132140 50 228 3.5 10.4 0.00 0.00 0.00 29 1031.2
20191016132036 50 287 3.5 10.4 0.00 0.00 0.00 29 1031.2
20191016131937 50 286 3.5 10.4 0.00 0.00 0.00 29 1031.2
20191016131833 50 267 5.2 10.4 0.00 0.00 0.00 29 1031.2
20191016131734 50 246 5.2 10.4 0.00 0.00 0.00 29 1031.2
20191016131634 50 258 6.1 10.4 0.00 0.00 0.00 29 1031.3
20191016131534 50 246 6.1 10.4 0.00 0.00 0.00 29 1031.2
20191016131433 49 294 3.5 8.7 0.00 0.00 0.00 30 1031.2
20191016131333 49 236 4.3 8.7 0.00 0.00 0.00 30 1031.2
20191016131230 49 248 7.0 8.7 0.00 0.00 0.00 30 1031.2
20191016131133 49 236 5.2 8.7 0.00 0.00 0.00 30 1031.1
20191016131029 49 246 5.2 8.7 0.00 0.00 0.00 30 1031.1
20191016130933 49 255 7.0 8.7 0.00 0.00 0.00 30 1031.2
20191016130833 49 251 5.2 8.7 0.00 0.00 0.00 30 1031.3
20191016130734 49 246 4.3 5.2 0.00 0.00 0.00 30 1031.3
20191016130630 49 240 2.6 5.2 0.00 0.00 0.00 30 1031.2
20191016130531 49 224 3.5 5.2 0.00 0.00 0.00 31 1031.3
20191016130427 49 191 3.5 5.2 0.00 0.00 0.00 31 1031.2
20191016130332 49 217 2.6 6.1 0.00 0.00 0.00 31 1031.3
20191016130228 50 248 3.5 7.0 0.00 0.00 0.00 30 1031.3
20191016130130 50 209 3.5 7.0 0.00 0.00 0.00 30 1031.3
20191016130045 50 238 3.5 7.8 0.00 0.00 0.00 30 1031.3
20191016125926 50 237 4.3 7.8 0.00 0.00 0.00 29 1031.3
20191016125842 50 215 3.5 7.8 0.00 0.00 0.00 29 1031.3
20191016125743 51 219 4.3 7.8 0.00 0.00 0.00 29 1031.3
20191016125643 51 213 4.3 7.8 0.00 0.00 0.00 28 1031.3
20191016125544 51 231 5.2 7.8 0.00 0.00 0.00 28 1031.3
20191016125440 51 213 5.2 7.8 0.00 0.00 0.00 29 1031.3
20191016125341 51 232 5.2 7.8 0.00 0.00 0.00 28 1031.3
20191016125237 50 213 6.1 7.8 0.00 0.00 0.00 29 1031.2
20191016125138 50 238 6.1 7.8 0.00 0.00 0.00 29 1031.2
20191016125034 50 229 4.3 5.2 0.00 0.00 0.00 29 1031.3
20191016124939 50 221 3.5 5.2 0.00 0.00 0.00 29 1031.3
20191016124835 50 225 2.6 5.2 0.00 0.00 0.00 29 1031.3
20191016124736 50 199 3.5 6.1 0.00 0.00 0.00 29 1031.3
20191016124632 50 217 2.6 6.1 0.00 0.00 0.00 29 1031.3
20191016124533 50 202 3.5 6.1 0.00 0.00 0.00 29 1031.3
20191016124429 50 200 3.5 6.1 0.00 0.00 0.00 29 1031.4
20191016124333 50 199 5.2 6.1 0.00 0.00 0.00 29 1031.3
20191016124232 50 189 3.5 6.1 0.00 0.00 0.00 29 1031.3
20191016124132 50 226 2.6 6.1 0.00 0.00 0.00 30 1031.3
20191016124029 50 226 2.6 6.1 0.00 0.00 0.00 30 1031.3
20191016123933 50 239 3.5 7.0 0.00 0.00 0.00 30 1031.4
20191016123833 50 241 3.5 9.6 0.00 0.00 0.00 31 1031.3
20191016123734 49 261 2.6 9.6 0.00 0.00 0.00 30 1031.4
20191016123635 49 241 3.5 9.6 0.00 0.00 0.00 30 1031.4
20191016123536 49 256 4.3 9.6 0.00 0.00 0.00 30 1031.4
20191016123432 49 262 4.3 9.6 0.00 0.00 0.00 31 1031.4
20191016123333 49 288 4.3 9.6 0.00 0.00 0.00 31 1031.5
20191016123228 49 266 3.5 9.6 0.00 0.00 0.00 31 1031.4
20191016123132 48 246 5.2 9.6 0.00 0.00 0.00 32 1031.4
20191016123035 48 265 7.0 9.6 0.00 0.00 0.00 32 1031.4
20191016122934 47 268 6.1 9.6 0.00 0.00 0.00 33 1030.6
20191016122834 47 279 7.8 9.6 0.00 0.00 0.00 34 1030.6
20191016122734 46 253 7.0 9.6 0.00 0.00 0.00 35 1030.6
20191016122632 46 267 6.1 9.6 0.00 0.00 0.00 36 1030.7
20191016122536 45 274 7.0 9.6 0.00 0.00 0.00 36 1030.7
20191016122431 44 272 8.7 9.6 0.00 0.00 0.00 37 1030.7
20191016122334 44 268 7.8 9.6 0.00 0.00 0.00 38 1030.7
20191016122234 43 265 7.0 9.6 0.00 0.00 0.00 40 1030.7
20191016122135 42 286 7.8 9.6 0.00 0.00 0.00 41 1030.7
20191016122031 41 267 6.1 8.7 0.00 0.00 0.00 42 1030.6
20191016121932 41 274 7.0 7.8 0.00 0.00 0.00 42 1030.6
20191016121828 40 270 5.2 6.1 0.00 0.00 0.00 45 1030.7
20191016121731 39 269 5.2 6.1 0.00 0.00 0.00 45 1030.7
20191016121631 39 272 5.2 6.1 0.00 0.00 0.00 47 1030.7
20191016121531 38 268 4.3 5.2 0.00 0.00 0.00 49 1030.7
20191016121430 37 271 3.5 4.3 0.00 0.00 0.00 50 1030.7
20191016121330 37 272 2.6 3.5 0.00 0.00 0.00 51 1030.6
20191016121229 37 295 2.6 3.5 0.00 0.00 0.00 51 1030.6
20191016121130 37 318 2.6 4.3 0.00 0.00 0.00 51 1030.6
20191016121030 37 306 2.6 4.3 0.00 0.00 0.00 51 1030.6
20191016120933 37 309 1.7 4.3 0.00 0.00 0.00 51 1030.6
20191016120833 37 317 2.6 4.3 0.00 0.00 0.00 51 1030.6
20191016120734 37 315 1.7 4.3 0.00 0.00 0.00 51 1030.6
20191016120630 37 321 1.7 4.3 0.00 0.00 0.00 51 1030.6
20191016120531 37 320 2.6 4.3 0.00 0.00 0.00 51 1030.6
20191016120431 38 322 0.9 4.3 0.00 0.00 0.00 52 1030.6
20191016120331 38 330 2.6 4.3 0.00 0.00 0.00 51 1030.6
20191016120229 38 315 2.6 4.3 0.00 0.00 0.00 51 1030.6
20191016120132 38 360 0.9 4.3 0.00 0.00 0.00 51 1030.6
20191016120032 38 316 2.6 4.3 0.00 0.00 0.00 51 1030.5
20191016115933 38 321 2.6 4.3 0.00 0.00 0.00 51 1030.6
20191016115829 38 291 2.6 4.3 0.00 0.00 0.00 51 1030.6
20191016115733 38 292 1.7 4.3 0.00 0.00 0.00 50 1030.6
20191016115631 38 292 1.7 4.3 0.00 0.00 0.00 50 1030.6
20191016115536 38 292 2.6 4.3 0.00 0.00 0.00 51 1030.6
20191016115435 38 292 2.6 4.3 0.00 0.00 0.00 51 1030.6
20191016115335 38 286 1.7 4.3 0.00 0.00 0.00 50 1030.6
20191016115234 38 284 2.6 4.3 0.00 0.00 0.00 49 1030.6
20191016115139 38 265 3.5 4.3 0.00 0.00 0.00 49 1030.6
20191016115034 38 227 1.7 3.5 0.00 0.00 0.00 49 1030.7
20191016114939 38 227 1.7 3.5 0.00 0.00 0.00 49 1030.7
20191016114835 38 241 2.6 3.5 0.00 0.00 0.00 49 1030.7
20191016114736 38 244 2.6 3.5 0.00 0.00 0.00 50 1030.7
20191016114632 38 215 2.6 3.5 0.00 0.00 0.00 50 1030.7
20191016114533 38 207 0.9 3.5 0.00 0.00 0.00 51 1030.7
20191016114433 38 293 1.7 3.5 0.00 0.00 0.00 50 1030.7
20191016114333 38 293 1.7 3.5 0.00 0.00 0.00 50 1030.7
20191016114232 38 294 0.9 3.5 0.00 0.00 0.00 50 1030.8
20191016114132 38 294 1.7 3.5 0.00 0.00 0.00 50 1030.8
20191016114031 38 294 1.7 3.5 0.00 0.00 0.00 51 1030.7
20191016113930 39 294 2.6 5.2 0.00 0.00 0.00 50 1030.8
20191016113834 39 234 0.9 5.2 0.00 0.00 0.00 49 1030.8
20191016113735 39 233 0.9 6.1 0.00 0.00 0.00 49 1030.8
20191016113632 39 232 1.7 7.0 0.00 0.00 0.00 48 1030.8
20191016113531 39 229 2.6 7.0 0.00 0.00 0.00 48 1030.7
20191016113432 39 240 2.6 7.0 0.00 0.00 0.00 48 1030.9
20191016113333 39 241 3.5 7.0 0.00 0.00 0.00 48 1030.8
20191016113229 39 248 3.5 7.0 0.00 0.00 0.00 48 1030.8
20191016113135 39 238 4.3 7.0 0.00 0.00 0.00 48 1030.8
20191016113030 39 233 4.3 7.0 0.00 0.00 0.00 48 1030.9
20191016112931 39 227 4.3 7.8 0.00 0.00 0.00 48 1030.9
20191016112827 39 228 6.1 7.8 0.00 0.00 0.00 48 1030.9
20191016112728 39 228 5.2 7.8 0.00 0.00 0.00 48 1030.9
20191016112644 39 230 5.2 8.7 0.00 0.00 0.00 48 1030.9
20191016112529 39 230 5.2 8.7 0.00 0.00 0.00 48 1030.9
20191016112445 39 227 5.2 8.7 0.00 0.00 0.00 48 1030.9
20191016112326 39 244 5.2 8.7 0.00 0.00 0.00 48 1030.9
20191016112242 39 245 5.2 8.7 0.00 0.00 0.00 48 1030.9
20191016112143 39 250 5.2 8.7 0.00 0.00 0.00 48 1030.9
20191016112039 38 226 7.0 8.7 0.00 0.00 0.00 49 1030.8
20191016111940 38 229 5.2 8.7 0.00 0.00 0.00 49 1030.8
20191016111840 38 250 6.1 8.7 0.00 0.00 0.00 49 1030.8
20191016111741 38 230 6.1 8.7 0.00 0.00 0.00 49 1030.8
20191016111637 38 233 4.3 6.1 0.00 0.00 0.00 49 1030.8
20191016111538 38 251 5.2 7.0 0.00 0.00 0.00 49 1030.9
20191016111434 38 227 5.2 7.0 0.00 0.00 0.00 49 1030.8
20191016111335 38 227 3.5 7.0 0.00 0.00 0.00 49 1030.9
20191016111231 38 249 4.3 7.8 0.00 0.00 0.00 50 1030.9
20191016111134 38 236 3.5 7.8 0.00 0.00 0.00 50 1030.9
20191016111034 38 246 3.5 7.8 0.00 0.00 0.00 50 1031.0
20191016110935 38 288 3.5 7.8 0.00 0.00 0.00 50 1031.0
20191016110831 38 222 5.2 7.8 0.00 0.00 0.00 50 1030.9
20191016110732 37 213 5.2 7.8 0.00 0.00 0.00 51 1031.0
20191016110628 37 314 1.7 7.8 0.00 0.00 0.00 51 1031.0
20191016110532 37 302 1.7 7.8 0.00 0.00 0.00 51 1031.0
20191016110431 37 68 5.2 7.8 0.00 0.00 0.00 51 1031.0
20191016110330 37 241 3.5 4.3 0.00 0.00 0.00 51 1030.9
20191016110228 37 309 3.5 4.3 0.00 0.00 0.00 51 1031.0
20191016110133 37 319 3.5 4.3 0.00 0.00 0.00 51 1030.9
20191016110031 37 284 0.9 3.5 0.00 0.00 0.00 51 1030.9
20191016105931 37 284 1.7 3.5 0.00 0.00 0.00 51 1030.9
20191016105835 37 285 2.6 3.5 0.00 0.00 0.00 50 1030.9
20191016105736 37 283 2.6 3.5 0.00 0.00 0.00 50 1030.9
20191016105633 38 254 1.7 2.6 0.00 0.00 0.00 50 1030.9
20191016105532 38 254 1.7 2.6 0.00 0.00 0.00 50 1030.9
20191016105430 38 253 1.7 4.3 0.00 0.00 0.00 50 1030.9
20191016105334 38 249 1.7 4.3 0.00 0.00 0.00 50 1030.9
20191016105238 38 265 1.7 4.3 0.00 0.00 0.00 50 1030.9
20191016105139 38 265 1.7 4.3 0.00 0.00 0.00 50 1030.9
20191016105034 38 290 0.9 4.3 0.00 0.00 0.00 50 1030.9
20191016104939 38 315 0.9 4.3 0.00 0.00 0.00 50 1031.0
20191016104835 38 317 1.7 4.3 0.00 0.00 0.00 50 1031.0
20191016104734 38 277 1.7 4.3 0.00 0.00 0.00 50 1031.0
20191016104634 38 233 2.6 4.3 0.00 0.00 0.00 50 1031.0
20191016104539 38 217 2.6 4.3 0.00 0.00 0.00 50 1031.0
20191016104436 38 243 1.7 4.3 0.00 0.00 0.00 50 1031.0
20191016104337 38 229 2.6 5.2 0.00 0.00 0.00 50 1031.0
20191016104233 38 225 3.5 5.2 0.00 0.00 0.00 50 1031.0
20191016104134 38 241 1.7 5.2 0.00 0.00 0.00 50 1031.0
20191016104029 38 229 1.7 5.2 0.00 0.00 0.00 50 1031.1
20191016103938 38 229 2.6 5.2 0.00 0.00 0.00 50 1031.0
20191016103834 38 238 2.6 5.2 0.00 0.00 0.00 50 1031.0
20191016103735 38 232 3.5 5.2 0.00 0.00 0.00 50 1031.0
20191016103631 38 217 4.3 5.2 0.00 0.00 0.00 50 1031.0
20191016103531 38 217 4.3 5.2 0.00 0.00 0.00 50 1031.0
20191016103431 38 217 4.3 5.2 0.00 0.00 0.00 50 1031.0
20191016103332 38 217 3.5 4.3 0.00 0.00 0.00 50 1031.0
20191016103231 38 217 3.5 4.3 0.00 0.00 0.00 50 1031.0
20191016103137 37 217 3.5 4.3 0.00 0.00 0.00 50 1031.0
20191016103032 37 217 3.5 3.5 0.00 0.00 0.00 50 1031.0
20191016102933 38 217 2.6 3.5 0.00 0.00 0.00 50 1031.0
20191016102829 37 216 2.6 4.3 0.00 0.00 0.00 50 1031.0
20191016102730 38 216 2.6 4.3 0.00 0.00 0.00 50 1031.0
20191016102630 38 216 2.6 5.2 0.00 0.00 0.00 50 1031.1
20191016102529 38 215 1.7 5.2 0.00 0.00 0.00 50 1031.1
20191016102429 38 214 1.7 5.2 0.00 0.00 0.00 50 1031.1
20191016102330 38 207 1.7 5.2 0.00 0.00 0.00 50 1031.1
20191016102227 38 209 2.6 5.2 0.00 0.00 0.00 50 1031.1
20191016102128 38 219 2.6 5.2 0.00 0.00 0.00 50 1031.2
20191016102044 38 210 3.5 5.2 0.00 0.00 0.00 50 1031.2
20191016101929 38 210 3.5 5.2 0.00 0.00 0.00 50 1031.2
20191016101845 38 211 4.3 5.2 0.00 0.00 0.00 50 1031.1
20191016101726 38 205 3.5 5.2 0.00 0.00 0.00 49 1031.2
20191016101642 38 207 3.5 5.2 0.00 0.00 0.00 49 1031.2
20191016101543 38 198 3.5 6.1 0.00 0.00 0.00 49 1031.2
20191016101439 38 195 3.5 6.1 0.00 0.00 0.00 49 1031.2
20191016101340 38 206 2.6 6.1 0.00 0.00 0.00 49 1031.2
20191016101240 38 207 3.5 7.0 0.00 0.00 0.00 49 1031.2
20191016101141 38 213 3.5 7.0 0.00 0.00 0.00 49 1031.2
20191016101037 38 219 2.6 8.7 0.00 0.00 0.00 49 1031.3
20191016100938 38 216 2.6 8.7 0.00 0.00 0.00 49 1031.3
20191016100834 38 215 3.5 9.6 0.00 0.00 0.00 49 1031.2
20191016100735 38 214 4.3 10.4 0.00 0.00 0.00 49 1031.4
20191016100635 38 214 4.3 10.4 0.00 0.00 0.00 49 1031.2
20191016100535 38 205 4.3 10.4 0.00 0.00 0.00 49 1031.4
20191016100434 38 197 4.3 10.4 0.00 0.00 0.00 49 1031.3
20191016100335 38 199 6.1 10.4 0.00 0.00 0.00 49 1031.3
20191016100231 38 209 6.1 10.4 0.00 0.00 0.00 49 1031.3
20191016100133 38 213 6.1 10.4 0.00 0.00 0.00 49 1031.2
20191016100030 38 190 6.1 10.4 0.00 0.00 0.00 49 1031.2
20191016095935 38 205 7.8 10.4 0.00 0.00 0.00 49 1031.2
20191016095834 38 212 6.1 10.4 0.00 0.00 0.00 50 1032.1
20191016095735 38 191 7.0 10.4 0.00 0.00 0.00 50 1032.1
20191016095631 38 216 7.8 10.4 0.00 0.00 0.00 50 1032.0
20191016095532 38 222 8.7 10.4 0.00 0.00 0.00 50 1031.3
20191016095428 38 221 7.8 10.4 0.00 0.00 0.00 50 1031.3
20191016095333 38 211 6.1 10.4 0.00 0.00 0.00 50 1031.3
20191016095229 38 215 8.7 10.4 0.00 0.00 0.00 50 1031.3
20191016095133 38 211 7.8 10.4 0.00 0.00 0.00 50 1031.3
20191016095033 38 205 7.8 10.4 0.00 0.00 0.00 50 1031.3
20191016094932 38 201 7.0 10.4 0.00 0.00 0.00 50 1031.4
20191016094832 38 207 8.7 11.3 0.00 0.00 0.00 50 1031.4
20191016094731 38 210 6.1 11.3 0.00 0.00 0.00 50 1031.4
20191016094635 38 214 7.0 11.3 0.00 0.00 0.00 50 1032.2
20191016094536 38 219 7.0 11.3 0.00 0.00 0.00 50 1032.1
20191016094432 38 225 7.8 11.3 0.00 0.00 0.00 50 1032.2
20191016094334 38 214 7.8 11.3 0.00 0.00 0.00 50 1032.1
20191016094230 38 212 7.0 11.3 0.00 0.00 0.00 50 1032.1
20191016094131 38 209 7.0 11.3 0.00 0.00 0.00 50 1032.1
20191016094031 38 210 7.8 11.3 0.00 0.00 0.00 50 1032.1
20191016093931 38 213 6.1 9.6 0.00 0.00 0.00 50 1032.3
20191016093828 38 214 5.2 9.6 0.00 0.00 0.00 50 1032.1
20191016093729 38 217 7.0 9.6 0.00 0.00 0.00 50 1032.1
20191016093645 38 198 7.8 10.4 0.00 0.00 0.00 50 1032.1
20191016093526 38 198 7.0 10.4 0.00 0.00 0.00 50 1032.0
20191016093442 38 217 6.1 10.4 0.00 0.00 0.00 50 1032.1
20191016093327 38 200 6.1 10.4 0.00 0.00 0.00 50 1032.0
20191016093242 38 214 7.8 10.4 0.00 0.00 0.00 50 1032.0
20191016093145 38 219 7.8 10.4 0.00 0.00 0.00 51 1032.0
20191016093040 38 216 6.1 10.4 0.00 0.00 0.00 51 1032.1
20191016092941 38 215 6.1 10.4 0.00 0.00 0.00 51 1032.1
20191016092837 37 221 7.8 10.4 0.00 0.00 0.00 51 1032.1
20191016092725 37 209 7.0 9.6 0.00 0.00 0.00 51 1032.1
20191016092644 37 207 5.2 9.6 0.00 0.00 0.00 51 1032.1
20191016092523 37 230 5.2 9.6 0.00 0.00 0.00 51 1032.1
20191016092443 37 208 5.2 9.6 0.00 0.00 0.00 51 1032.1
20191016092344 37 219 5.2 9.6 0.00 0.00 0.00 51 1032.2
20191016092240 37 206 7.0 9.6 0.00 0.00 0.00 51 1032.2
20191016092141 37 213 7.0 9.6 0.00 0.00 0.00 51 1032.3
20191016092041 37 235 6.1 9.6 0.00 0.00 0.00 51 1032.3
20191016091942 37 223 5.2 10.4 0.00 0.00 0.00 51 1032.3
20191016091838 37 223 4.3 11.3 0.00 0.00 0.00 51 1032.3
20191016091739 37 200 4.3 11.3 0.00 0.00 0.00 51 1032.3
20191016091635 37 220 6.1 11.3 0.00 0.00 0.00 51 1032.3
20191016091536 37 225 6.1 11.3 0.00 0.00 0.00 51 1032.3
20191016091432 37 207 5.2 11.3 0.00 0.00 0.00 51 1032.4
20191016091335 38 211 5.2 11.3 0.00 0.00 0.00 51 1032.4
20191016091235 38 202 6.1 11.3 0.00 0.00 0.00 51 1032.5
20191016091134 38 194 7.0 11.3 0.00 0.00 0.00 51 1032.5
20191016091034 38 204 7.0 11.3 0.00 0.00 0.00 51 1032.5
20191016090935 38 209 7.0 10.4 0.00 0.00 0.00 51 1032.5
20191016090830 38 215 6.1 10.4 0.00 0.00 0.00 51 1032.5
20191016090735 38 191 7.0 10.4 0.00 0.00 0.00 51 1032.5
20191016090635 38 215 7.8 10.4 0.00 0.00 0.00 51 1032.6
20191016090535 38 210 7.8 10.4 0.00 0.00 0.00 51 1032.6
20191016090434 38 217 6.1 9.6 0.00 0.00 0.00 51 1032.6
20191016090335 38 198 7.0 9.6 0.00 0.00 0.00 51 1032.6
20191016090231 38 202 7.8 9.6 0.00 0.00 0.00 51 1032.6
20191016090133 38 226 6.1 10.4 0.00 0.00 0.00 51 1032.6
20191016090035 38 197 8.7 10.4 0.00 0.00 0.00 51 1032.6
20191016085936 38 219 7.8 10.4 0.00 0.00 0.00 51 1032.6
20191016085831 38 219 7.8 10.4 0.00 0.00 0.00 51 1032.6
20191016085733 38 210 8.7 10.4 0.00 0.00 0.00 51 1032.6
20191016085629 38 211 8.7 10.4 0.00 0.00 0.00 51 1032.7
20191016085530 38 229 6.1 10.4 0.00 0.00 0.00 51 1032.8
20191016085430 38 217 7.8 10.4 0.00 0.00 0.00 51 1032.8
20191016085331 38 210 8.7 10.4 0.00 0.00 0.00 51 1032.8
20191016085227 38 198 7.0 10.4 0.00 0.00 0.00 51 1032.9
20191016085128 38 207 8.7 10.4 0.00 0.00 0.00 51 1032.9
20191016085044 38 216 8.7 10.4 0.00 0.00 0.00 51 1032.9
20191016084945 38 203 7.8 10.4 0.00 0.00 0.00 51 1032.9
20191016084841 38 213 7.0 10.4 0.00 0.00 0.00 51 1033.1
20191016084726 38 202 8.7 11.3 0.00 0.00 0.00 52 1033.1
20191016084642 38 221 7.8 11.3 0.00 0.00 0.00 52 1033.0
20191016084543 38 201 7.8 11.3 0.00 0.00 0.00 52 1033.0
20191016084438 38 210 7.8 11.3 0.00 0.00 0.00 52 1033.1
20191016084340 38 199 7.8 11.3 0.00 0.00 0.00 51 1033.0
20191016084236 38 201 7.8 11.3 0.00 0.00 0.00 51 1033.1
20191016084137 38 211 7.0 11.3 0.00 0.00 0.00 51 1033.1
20191016084036 38 213 7.8 11.3 0.00 0.00 0.00 51 1033.1
20191016083938 38 213 7.8 11.3 0.00 0.00 0.00 51 1033.1
20191016083834 38 221 8.7 11.3 0.00 0.00 0.00 51 1033.2
20191016083735 38 213 8.7 10.4 0.00 0.00 0.00 51 1033.3
20191016083631 38 214 7.8 12.2 0.00 0.00 0.00 51 1033.3
20191016083532 38 207 7.8 12.2 0.00 0.00 0.00 51 1033.3
20191016083431 38 221 7.8 12.2 0.00 0.00 0.00 51 1033.3
20191016083333 38 196 7.8 12.2 0.00 0.00 0.00 51 1033.3
20191016083229 38 216 7.8 12.2 0.00 0.00 0.00 51 1033.2
20191016083130 38 202 7.0 12.2 0.00 0.00 0.00 51 1033.2
20191016083028 38 208 8.7 13.9 0.00 0.00 0.00 51 1033.3
20191016082928 38 217 9.6 13.9 0.00 0.00 0.00 51 1033.3
20191016082845 38 209 9.6 13.9 0.00 0.00 0.00 51 1033.4
20191016082730 38 194 7.8 13.9 0.00 0.00 0.00 51 1033.4
20191016082626 38 221 8.7 13.9 0.00 0.00 0.00 52 1033.2
20191016082527 38 217 9.6 13.9 0.00 0.00 0.00 52 1033.3
20191016082443 38 213 8.7 13.9 0.00 0.00 0.00 52 1033.4
20191016082343 38 202 7.8 13.9 0.00 0.00 0.00 52 1033.5
20191016082239 38 202 9.6 13.9 0.00 0.00 0.00 52 1033.4
20191016082141 38 200 7.8 13.9 0.00 0.00 0.00 52 1033.4
20191016082041 38 217 7.8 13.0 0.00 0.00 0.00 52 1033.5
20191016081941 38 222 8.7 13.0 0.00 0.00 0.00 52 1033.4
20191016081838 38 201 8.7 11.3 0.00 0.00 0.00 52 1033.5
20191016081739 38 214 8.7 11.3 0.00 0.00 0.00 52 1033.5
20191016081635 38 200 7.8 11.3 0.00 0.00 0.00 52 1033.6
20191016081536 38 229 7.8 11.3 0.00 0.00 0.00 52 1033.6
20191016081435 38 230 7.0 11.3 0.00 0.00 0.00 52 1033.6
20191016081335 38 242 7.8 11.3 0.00 0.00 0.00 52 1033.6
20191016081235 38 215 6.1 11.3 0.00 0.00 0.00 52 1033.6
20191016081135 38 225 7.8 11.3 0.00 0.00 0.00 52 1033.6
20191016081032 38 214 8.7 11.3 0.00 0.00 0.00 52 1033.5
20191016080933 38 219 8.7 11.3 0.00 0.00 0.00 52 1033.6
20191016080829 38 217 7.8 11.3 0.00 0.00 0.00 52 1033.7
20191016080734 38 211 7.8 11.3 0.00 0.00 0.00 52 1033.6
20191016080630 38 187 8.7 12.2 0.00 0.00 0.00 52 1033.6
20191016080530 38 188 7.8 12.2 0.00 0.00 0.00 52 1033.6
20191016080427 38 209 7.8 12.2 0.00 0.00 0.00 52 1033.6
20191016080327 38 198 5.2 12.2 0.00 0.00 0.00 52 1033.7
20191016080244 38 215 7.0 12.2 0.00 0.00 0.00 52 1033.6
20191016080130 38 202 7.8 13.0 0.00 0.00 0.00 51 1033.7
20191016080045 38 206 7.0 13.0 0.00 0.00 0.00 51 1033.7
20191016075926 38 205 7.8 13.0 0.00 0.00 0.00 52 1033.7
20191016075842 38 202 7.8 13.0 0.00 0.00 0.00 52 1033.7
20191016075743 38 219 8.7 13.0 0.00 0.00 0.00 52 1033.7
20191016075638 38 201 8.7 13.0 0.00 0.00 0.00 52 1033.7
20191016075540 38 213 8.7 13.0 0.00 0.00 0.00 51 1033.8
20191016075440 38 219 8.7 13.0 0.00 0.00 0.00 52 1033.9
20191016075341 38 200 9.6 13.0 0.00 0.00 0.00 52 1033.9
20191016075236 38 212 9.6 13.0 0.00 0.00 0.00 52 1033.9
20191016075138 38 227 10.4 13.0 0.00 0.00 0.00 52 1033.8
20191016075034 38 229 10.4 13.0 0.00 0.00 0.00 52 1033.8
20191016074934 38 219 9.6 13.0 0.00 0.00 0.00 52 1033.8
20191016074831 38 196 9.6 13.0 0.00 0.00 0.00 52 1033.8
20191016074734 38 217 8.7 13.0 0.00 0.00 0.00 52 1033.9
20191016074633 38 211 8.7 13.0 0.00 0.00 0.00 52 1033.9
20191016074534 38 229 9.6 13.0 0.00 0.00 0.00 52 1034.0
20191016074430 37 225 8.7 13.0 0.00 0.00 0.00 52 1034.0
20191016074332 37 213 11.3 13.0 0.00 0.00 0.00 52 1034.0
20191016074227 37 221 11.3 13.0 0.00 0.00 0.00 52 1034.1
20191016074131 37 215 9.6 12.2 0.00 0.00 0.00 52 1034.0
20191016074030 37 205 7.0 12.2 0.00 0.00 0.00 52 1034.1
20191016073932 37 224 9.6 12.2 0.00 0.00 0.00 52 1034.1
20191016073827 37 217 9.6 12.2 0.00 0.00 0.00 52 1034.1
20191016073729 37 253 7.8 12.2 0.00 0.00 0.00 52 1034.2
20191016073645 37 223 9.6 12.2 0.00 0.00 0.00 52 1034.2
20191016073525 38 221 7.8 11.3 0.00 0.00 0.00 52 1034.2
20191016073426 38 210 8.7 11.3 0.00 0.00 0.00 52 1034.2
20191016073326 38 211 7.8 11.3 0.00 0.00 0.00 52 1034.3
20191016073223 38 211 8.7 11.3 0.00 0.00 0.00 52 1034.3
20191016073128 38 222 7.8 11.3 0.00 0.00 0.00 52 1034.3
20191016073044 38 209 8.7 11.3 0.00 0.00 0.00 52 1034.3
20191016072944 38 217 8.7 11.3 0.00 0.00 0.00 52 1034.3
20191016072841 38 206 8.7 11.3 0.00 0.00 0.00 52 1034.3
20191016072726 37 213 8.7 10.4 0.00 0.00 0.00 52 1034.3
20191016072641 38 215 8.7 10.4 0.00 0.00 0.00 52 1034.3
20191016072543 37 203 8.7 10.4 0.00 0.00 0.00 52 1034.4
20191016072438 37 223 6.1 10.4 0.00 0.00 0.00 52 1034.4
20191016072335 37 214 6.1 10.4 0.00 0.00 0.00 52 1034.3
20191016072232 37 203 6.1 10.4 0.00 0.00 0.00 52 1034.4
20191016072140 37 217 7.0 12.2 0.00 0.00 0.00 52 1034.4
20191016072036 37 199 8.7 12.2 0.00 0.00 0.00 52 1034.4
20191016071937 37 215 8.7 12.2 0.00 0.00 0.00 52 1034.5
20191016071833 37 213 7.8 12.2 0.00 0.00 0.00 52 1034.5
20191016071734 37 202 7.0 12.2 0.00 0.00 0.00 52 1034.5
20191016071635 37 215 8.7 12.2 0.00 0.00 0.00 52 1034.4
20191016071535 37 223 7.8 12.2 0.00 0.00 0.00 52 1034.4
20191016071435 37 210 7.8 12.2 0.00 0.00 0.00 52 1034.4
20191016071335 37 215 9.6 12.2 0.00 0.00 0.00 52 1034.4
20191016071234 37 206 7.8 12.2 0.00 0.00 0.00 52 1034.4
20191016071135 37 211 7.8 11.3 0.00 0.00 0.00 52 1034.5
20191016071032 37 207 7.8 11.3 0.00 0.00 0.00 52 1034.5
20191016070933 37 198 7.8 11.3 0.00 0.00 0.00 52 1034.5
20191016070832 37 207 9.6 11.3 0.00 0.00 0.00 52 1034.5
20191016070733 37 212 9.6 11.3 0.00 0.00 0.00 52 1034.5
20191016070629 38 222 7.8 11.3 0.00 0.00 0.00 52 1034.5
20191016070530 38 200 7.8 11.3 0.00 0.00 0.00 52 1034.6
20191016070426 38 215 8.7 11.3 0.00 0.00 0.00 52 1034.6
20191016070327 38 230 6.1 11.3 0.00 0.00 0.00 52 1034.6
20191016070243 38 221 5.2 11.3 0.00 0.00 0.00 52 1034.5
20191016070130 38 237 6.1 12.2 0.00 0.00 0.00 52 1034.5
20191016070045 38 219 7.0 12.2 0.00 0.00 0.00 52 1034.5
20191016065926 38 213 8.7 12.2 0.00 0.00 0.00 52 1034.5
20191016065841 38 222 7.8 12.2 0.00 0.00 0.00 52 1034.6
20191016065743 38 229 6.1 12.2 0.00 0.00 0.00 52 1034.6
20191016065638 38 223 7.8 12.2 0.00 0.00 0.00 52 1034.6
20191016065539 38 205 8.7 12.2 0.00 0.00 0.00 52 1034.6
20191016065440 38 215 8.7 12.2 0.00 0.00 0.00 52 1034.6
20191016065340 38 203 9.6 12.2 0.00 0.00 0.00 52 1034.7
20191016065237 38 223 8.7 12.2 0.00 0.00 0.00 52 1034.6
20191016065138 38 219 7.8 12.2 0.00 0.00 0.00 52 1034.5
20191016065034 38 219 8.7 12.2 0.00 0.00 0.00 52 1034.7
20191016064934 38 218 7.0 12.2 0.00 0.00 0.00 52 1034.6
20191016064835 38 230 8.7 12.2 0.00 0.00 0.00 52 1034.6
20191016064735 38 230 9.6 12.2 0.00 0.00 0.00 52 1034.7
20191016064631 38 214 9.6 12.2 0.00 0.00 0.00 52 1034.6
20191016064532 38 210 7.8 12.2 0.00 0.00 0.00 52 1034.8
20191016064428 38 203 9.6 12.2 0.00 0.00 0.00 52 1034.7
20191016064330 38 232 7.8 11.3 0.00 0.00 0.00 52 1034.8
20191016064225 38 209 9.6 11.3 0.00 0.00 0.00 52 1034.9
20191016064130 38 211 8.7 12.2 0.00 0.00 0.00 52 1034.9
20191016064026 38 211 9.6 12.2 0.00 0.00 0.00 52 1034.9
20191016063927 38 225 7.8 12.2 0.00 0.00 0.00 52 1034.9
20191016063844 38 223 8.7 12.2 0.00 0.00 0.00 52 1034.9
20191016063745 38 205 8.7 12.2 0.00 0.00 0.00 52 1034.9
20191016063641 38 221 8.7 12.2 0.00 0.00 0.00 52 1034.9
20191016063525 38 226 7.8 12.2 0.00 0.00 0.00 52 1034.8
20191016063442 38 194 8.7 12.2 0.00 0.00 0.00 52 1034.9
20191016063342 37 213 10.4 12.2 0.00 0.00 0.00 52 1034.9
20191016063238 37 207 9.6 12.2 0.00 0.00 0.00 52 1035.0
20191016063140 37 205 9.6 12.2 0.00 0.00 0.00 52 1034.9
20191016063035 37 216 10.4 13.0 0.00 0.00 0.00 52 1035.0
20191016062936 37 218 9.6 13.0 0.00 0.00 0.00 52 1035.0
20191016062836 37 200 8.7 13.0 0.00 0.00 0.00 52 1035.0
20191016062737 37 198 8.7 13.0 0.00 0.00 0.00 52 1035.0
20191016062633 37 226 9.6 13.0 0.00 0.00 0.00 52 1035.0
20191016062534 37 213 9.6 13.0 0.00 0.00 0.00 52 1035.0
20191016062430 37 211 9.6 13.0 0.00 0.00 0.00 52 1035.0
20191016062332 37 213 9.6 13.0 0.00 0.00 0.00 53 1035.0
20191016062228 37 188 10.4 13.0 0.00 0.00 0.00 53 1035.0
20191016062132 37 194 8.7 13.9 0.00 0.00 0.00 53 1035.0
20191016062028 37 205 9.6 13.9 0.00 0.00 0.00 53 1035.1
20191016061929 37 219 9.6 13.9 0.00 0.00 0.00 53 1035.1
20191016061826 37 207 9.6 13.9 0.00 0.00 0.00 53 1035.1
20191016061727 37 222 9.6 13.9 0.00 0.00 0.00 53 1035.0
20191016061643 37 213 8.7 13.9 0.00 0.00 0.00 53 1035.1
20191016061529 37 213 8.7 13.9 0.00 0.00 0.00 53 1035.1
20191016061425 37 209 8.7 13.9 0.00 0.00 0.00 53 1035.1
20191016061326 37 210 9.6 13.9 0.00 0.00 0.00 53 1035.2
20191016061242 37 209 9.6 13.9 0.00 0.00 0.00 53 1035.2
20191016061144 37 200 9.6 13.0 0.00 0.00 0.00 53 1035.2
20191016061039 37 199 9.6 13.0 0.00 0.00 0.00 53 1035.2
20191016060941 37 207 9.6 13.0 0.00 0.00 0.00 53 1035.2
20191016060840 37 217 10.4 13.0 0.00 0.00 0.00 53 1035.2
20191016060741 37 213 9.6 13.0 0.00 0.00 0.00 53 1035.3
20191016060643 37 202 9.6 13.0 0.00 0.00 0.00 53 1035.2
20191016060556 37 209 9.6 13.0 0.00 0.00 0.00 53 1035.3
20191016060437 37 207 8.7 13.0 0.00 0.00 0.00 53 1035.2
20191016060338 37 196 8.7 13.0 0.00 0.00 0.00 53 1035.2
20191016060235 37 197 8.7 13.0 0.00 0.00 0.00 53 1035.3
20191016060140 37 214 8.7 13.0 0.00 0.00 0.00 53 1035.3
20191016060036 37 215 8.7 13.0 0.00 0.00 0.00 53 1035.3
20191016055934 37 203 9.6 12.2 0.00 0.00 0.00 53 1035.3
20191016055833 37 208 9.6 12.2 0.00 0.00 0.00 53 1035.3
20191016055735 37 207 9.6 12.2 0.00 0.00 0.00 53 1035.3
20191016055630 37 199 7.8 11.3 0.00 0.00 0.00 53 1035.3
20191016055535 37 198 8.7 11.3 0.00 0.00 0.00 53 1035.3
20191016055435 37 203 9.6 12.2 0.00 0.00 0.00 53 1035.3
20191016055334 37 211 9.6 12.2 0.00 0.00 0.00 53 1035.3
20191016055233 37 207 8.7 12.2 0.00 0.00 0.00 53 1035.3
20191016055133 37 210 8.7 12.2 0.00 0.00 0.00 53 1035.4
20191016055032 37 205 8.7 12.2 0.00 0.00 0.00 53 1035.3
20191016054933 37 209 8.7 12.2 0.00 0.00 0.00 53 1035.3
20191016054835 37 202 7.8 12.2 0.00 0.00 0.00 53 1035.3
20191016054737 37 206 8.7 12.2 0.00 0.00 0.00 53 1035.3
20191016054633 37 200 8.7 12.2 0.00 0.00 0.00 53 1035.3
20191016054533 37 207 9.6 12.2 0.00 0.00 0.00 53 1035.4
20191016054432 37 224 7.0 13.0 0.00 0.00 0.00 53 1035.4
20191016054332 37 211 7.8 13.0 0.00 0.00 0.00 53 1035.4
20191016054235 37 199 7.8 13.0 0.00 0.00 0.00 53 1035.4
20191016054136 37 208 7.8 13.0 0.00 0.00 0.00 53 1035.5
20191016054033 37 202 7.8 13.0 0.00 0.00 0.00 53 1035.4
20191016053933 37 196 6.1 13.0 0.00 0.00 0.00 53 1035.4
20191016053833 37 211 7.8 13.0 0.00 0.00 0.00 53 1035.4
20191016053732 37 213 8.7 13.0 0.00 0.00 0.00 53 1035.3
20191016053630 37 222 9.6 13.0 0.00 0.00 0.00 53 1035.4
20191016053538 37 211 8.7 12.2 0.00 0.00 0.00 53 1035.4
20191016053435 37 210 7.8 12.2 0.00 0.00 0.00 53 1035.3
20191016053335 36 201 9.6 12.2 0.00 0.00 0.00 53 1035.4
20191016053232 36 199 8.7 10.4 0.00 0.00 0.00 53 1035.5
20191016053133 36 213 8.7 10.4 0.00 0.00 0.00 53 1035.5
20191016053027 36 216 7.8 10.4 0.00 0.00 0.00 53 1035.5
20191016052934 36 217 7.0 10.4 0.00 0.00 0.00 52 1035.5
20191016052833 36 217 6.1 10.4 0.00 0.00 0.00 52 1035.5
20191016052733 36 205 7.8 10.4 0.00 0.00 0.00 52 1035.5
20191016052632 36 190 8.7 10.4 0.00 0.00 0.00 52 1035.5
20191016052533 36 227 7.8 10.4 0.00 0.00 0.00 52 1035.5
20191016052429 36 205 8.7 10.4 0.00 0.00 0.00 52 1035.5
20191016052331 36 219 8.7 10.4 0.00 0.00 0.00 52 1035.5
20191016052231 36 217 7.8 9.6 0.00 0.00 0.00 52 1035.4
20191016052131 36 207 7.8 9.6 0.00 0.00 0.00 52 1035.5
20191016052029 36 205 7.8 9.6 0.00 0.00 0.00 52 1035.5
20191016051929 36 214 7.8 9.6 0.00 0.00 0.00 52 1035.6
20191016051825 36 208 7.0 9.6 0.00 0.00 0.00 52 1035.6
20191016051726 36 219 7.8 8.7 0.00 0.00 0.00 52 1035.5
20191016051627 36 211 7.8 8.7 0.00 0.00 0.00 52 1035.5
20191016051527 36 217 7.0 8.7 0.00 0.00 0.00 52 1035.6
20191016051443 36 204 7.0 8.7 0.00 0.00 0.00 52 1035.6
20191016051345 36 211 6.1 8.7 0.00 0.00 0.00 52 1035.6
20191016051240 36 217 6.1 8.7 0.00 0.00 0.00 52 1035.6
20191016051141 36 204 6.1 8.7 0.00 0.00 0.00 52 1035.5
20191016051038 36 213 6.1 8.7 0.00 0.00 0.00 52 1035.5
20191016050943 36 200 6.1 8.7 0.00 0.00 0.00 52 1035.5
20191016050838 36 211 7.0 8.7 0.00 0.00 0.00 53 1035.6
20191016050739 36 219 6.1 8.7 0.00 0.00 0.00 53 1035.6
20191016050635 36 218 7.0 8.7 0.00 0.00 0.00 52 1035.6
20191016050536 36 223 6.1 8.7 0.00 0.00 0.00 52 1035.7
20191016050433 36 227 7.0 8.7 0.00 0.00 0.00 52 1035.5
20191016050334 36 221 7.0 8.7 0.00 0.00 0.00 53 1035.6
20191016050234 36 217 6.1 8.7 0.00 0.00 0.00 53 1035.6
20191016050139 36 229 6.1 8.7 0.00 0.00 0.00 53 1035.5
20191016050035 36 218 6.1 8.7 0.00 0.00 0.00 53 1035.5
20191016045935 36 228 5.2 7.0 0.00 0.00 0.00 53 1035.5
20191016045831 36 229 4.3 7.0 0.00 0.00 0.00 53 1035.5
20191016045732 36 213 5.2 7.0 0.00 0.00 0.00 53 1035.5
20191016045633 36 224 6.1 7.0 0.00 0.00 0.00 53 1035.5
20191016045532 36 225 5.2 7.0 0.00 0.00 0.00 53 1035.5
20191016045431 36 213 5.2 7.0 0.00 0.00 0.00 53 1035.5
20191016045331 36 224 5.2 6.1 0.00 0.00 0.00 53 1035.5
20191016045230 36 225 5.2 6.1 0.00 0.00 0.00 53 1035.5
20191016045132 36 217 5.2 6.1 0.00 0.00 0.00 53 1035.5
20191016045028 36 212 5.2 6.1 0.00 0.00 0.00 53 1035.5
20191016044932 36 209 5.2 6.1 0.00 0.00 0.00 53 1035.5
20191016044827 36 215 5.2 6.1 0.00 0.00 0.00 53 1035.5
20191016044731 36 218 5.2 7.0 0.00 0.00 0.00 53 1035.4
20191016044627 37 215 4.3 7.8 0.00 0.00 0.00 53 1035.5
20191016044529 37 212 4.3 8.7 0.00 0.00 0.00 53 1035.5
20191016044444 37 208 4.3 8.7 0.00 0.00 0.00 53 1035.6
20191016044329 37 206 5.2 8.7 0.00 0.00 0.00 53 1035.5
20191016044225 37 213 5.2 8.7 0.00 0.00 0.00 53 1035.5
20191016044126 37 209 5.2 8.7 0.00 0.00 0.00 53 1035.5
20191016044042 36 211 5.2 8.7 0.00 0.00 0.00 53 1035.5
20191016043941 36 211 5.2 8.7 0.00 0.00 0.00 53 1035.5
20191016043836 36 207 6.1 8.7 0.00 0.00 0.00 53 1035.5
20191016043737 36 217 6.1 8.7 0.00 0.00 0.00 53 1035.5
20191016043637 36 216 6.1 8.7 0.00 0.00 0.00 53 1035.5
20191016043538 36 223 6.1 7.8 0.00 0.00 0.00 53 1035.5
20191016043435 36 231 6.1 7.8 0.00 0.00 0.00 53 1035.5
20191016043336 36 224 5.2 7.8 0.00 0.00 0.00 53 1035.5
20191016043231 36 231 5.2 7.8 0.00 0.00 0.00 53 1035.5
20191016043133 36 222 6.1 7.8 0.00 0.00 0.00 53 1035.6
20191016043027 36 223 5.2 7.8 0.00 0.00 0.00 53 1035.5
20191016042934 36 227 6.1 7.8 0.00 0.00 0.00 53 1035.5
20191016042833 36 220 5.2 6.1 0.00 0.00 0.00 53 1035.5
20191016042733 36 230 5.2 6.1 0.00 0.00 0.00 53 1035.5
20191016042632 36 222 4.3 6.1 0.00 0.00 0.00 53 1035.5
20191016042532 36 221 4.3 6.1 0.00 0.00 0.00 53 1035.5
20191016042431 36 230 5.2 6.1 0.00 0.00 0.00 53 1035.5
20191016042336 36 228 5.2 6.1 0.00 0.00 0.00 53 1035.4
20191016042235 36 228 5.2 6.1 0.00 0.00 0.00 53 1035.5
20191016042139 36 231 5.2 6.1 0.00 0.00 0.00 53 1035.4
20191016042035 37 232 5.2 6.1 0.00 0.00 0.00 53 1035.5
20191016041936 37 229 4.3 5.2 0.00 0.00 0.00 53 1035.4
20191016041832 37 232 4.3 5.2 0.00 0.00 0.00 54 1035.5
20191016041733 37 227 4.3 6.1 0.00 0.00 0.00 54 1035.5
20191016041633 37 226 4.3 6.1 0.00 0.00 0.00 54 1035.5
20191016041535 37 233 4.3 6.1 0.00 0.00 0.00 54 1035.4
20191016041430 37 228 4.3 6.1 0.00 0.00 0.00 54 1035.4
20191016041331 37 229 3.5 6.1 0.00 0.00 0.00 54 1035.5
20191016041228 37 232 4.3 6.1 0.00 0.00 0.00 53 1035.4
20191016041128 37 231 3.5 6.1 0.00 0.00 0.00 54 1035.4
20191016041028 37 218 3.5 6.1 0.00 0.00 0.00 54 1035.4
20191016040929 37 237 5.2 6.1 0.00 0.00 0.00 54 1035.4
20191016040825 37 234 4.3 5.2 0.00 0.00 0.00 54 1035.4
20191016040726 37 217 3.5 5.2 0.00 0.00 0.00 54 1035.5
20191016040642 37 226 3.5 5.2 0.00 0.00 0.00 54 1035.3
20191016040543 37 226 4.3 5.2 0.00 0.00 0.00 54 1035.3
20191016040439 37 225 4.3 5.2 0.00 0.00 0.00 54 1035.3
20191016040344 37 225 4.3 5.2 0.00 0.00 0.00 54 1035.3
20191016040241 37 225 5.2 5.2 0.00 0.00 0.00 54 1035.3
20191016040142 37 225 4.3 5.2 0.00 0.00 0.00 54 1035.3
20191016040036 37 225 4.3 5.2 0.00 0.00 0.00 54 1035.3
20191016035940 37 221 4.3 5.2 0.00 0.00 0.00 54 1035.2
20191016035838 37 223 5.2 5.2 0.00 0.00 0.00 54 1035.3
20191016035738 38 223 5.2 5.2 0.00 0.00 0.00 54 1035.3
20191016035638 38 221 4.3 5.2 0.00 0.00 0.00 54 1035.3
20191016035539 38 218 4.3 5.2 0.00 0.00 0.00 54 1035.3
20191016035435 38 218 4.3 5.2 0.00 0.00 0.00 54 1035.3
20191016035336 38 217 4.3 4.3 0.00 0.00 0.00 54 1035.3
20191016035232 38 217 3.5 4.3 0.00 0.00 0.00 54 1035.3
20191016035133 38 217 3.5 4.3 0.00 0.00 0.00 54 1035.3
20191016035030 38 218 3.5 5.2 0.00 0.00 0.00 54 1035.3
20191016034931 38 218 4.3 5.2 0.00 0.00 0.00 53 1035.3
20191016034827 39 219 4.3 5.2 0.00 0.00 0.00 53 1035.3
20191016034728 39 219 3.5 5.2 0.00 0.00 0.00 53 1035.2
20191016034644 39 219 3.5 5.2 0.00 0.00 0.00 53 1035.2
20191016034525 39 219 4.3 5.2 0.00 0.00 0.00 53 1035.2
20191016034441 39 221 4.3 5.2 0.00 0.00 0.00 53 1035.1
20191016034326 39 221 4.3 5.2 0.00 0.00 0.00 53 1035.1
20191016034242 39 221 4.3 5.2 0.00 0.00 0.00 53 1035.1
20191016034144 39 221 4.3 5.2 0.00 0.00 0.00 53 1035.2
20191016034039 39 221 4.3 5.2 0.00 0.00 0.00 53 1035.2
20191016033940 40 217 4.3 5.2 0.00 0.00 0.00 52 1035.3
20191016033836 40 217 4.3 5.2 0.00 0.00 0.00 52 1035.1
20191016033737 40 217 4.3 4.3 0.00 0.00 0.00 52 1035.2
20191016033637 40 214 3.5 4.3 0.00 0.00 0.00 52 1035.2
20191016033539 40 209 3.5 4.3 0.00 0.00 0.00 52 1035.2
20191016033434 40 205 3.5 4.3 0.00 0.00 0.00 52 1035.3
20191016033336 40 202 3.5 4.3 0.00 0.00 0.00 52 1035.2
20191016033231 40 198 3.5 4.3 0.00 0.00 0.00 52 1035.2
20191016033132 40 195 3.5 4.3 0.00 0.00 0.00 52 1035.1
20191016033035 40 195 3.5 4.3 0.00 0.00 0.00 52 1035.1
20191016032937 40 195 3.5 4.3 0.00 0.00 0.00 52 1035.1
20191016032833 40 195 3.5 4.3 0.00 0.00 0.00 52 1035.1
20191016032733 40 195 3.5 3.5 0.00 0.00 0.00 52 1035.1
20191016032632 41 194 2.6 3.5 0.00 0.00 0.00 52 1035.1
20191016032532 41 194 2.6 3.5 0.00 0.00 0.00 52 1035.2
20191016032431 41 190 2.6 3.5 0.00 0.00 0.00 51 1035.1
20191016032337 41 187 2.6 4.3 0.00 0.00 0.00 51 1035.1
20191016032232 41 187 2.6 4.3 0.00 0.00 0.00 51 1035.1
20191016032133 41 186 2.6 4.3 0.00 0.00 0.00 51 1035.1
20191016032029 41 186 2.6 4.3 0.00 0.00 0.00 51 1035.1
20191016031930 41 184 2.6 4.3 0.00 0.00 0.00 51 1035.1
20191016031827 41 184 1.7 4.3 0.00 0.00 0.00 51 1035.1
20191016031731 41 183 1.7 4.3 0.00 0.00 0.00 51 1035.1
20191016031627 41 182 2.6 4.3 0.00 0.00 0.00 51 1035.1
20191016031528 41 182 3.5 4.3 0.00 0.00 0.00 51 1035.1
20191016031444 41 182 2.6 4.3 0.00 0.00 0.00 51 1035.1
20191016031325 41 182 3.5 4.3 0.00 0.00 0.00 51 1035.1
20191016031241 41 175 3.5 4.3 0.00 0.00 0.00 51 1035.1
20191016031142 41 172 3.5 4.3 0.00 0.00 0.00 51 1035.2
20191016031042 41 165 2.6 4.3 0.00 0.00 0.00 51 1035.2
20191016030922 41 164 3.5 4.3 0.00 0.00 0.00 51 1035.0
20191016030841 41 164 4.3 4.3 0.00 0.00 0.00 51 1035.1
20191016030742 41 165 4.3 4.3 0.00 0.00 0.00 51 1035.0
20191016030638 41 175 3.5 4.3 0.00 0.00 0.00 51 1035.1
20191016030536 41 175 2.6 4.3 0.00 0.00 0.00 51 1035.0
20191016030432 41 177 2.6 4.3 0.00 0.00 0.00 51 1035.2
20191016030336 41 177 2.6 4.3 0.00 0.00 0.00 51 1035.2
20191016030235 41 175 3.5 4.3 0.00 0.00 0.00 51 1035.1
20191016030137 41 173 3.5 4.3 0.00 0.00 0.00 51 1035.2
20191016030032 41 172 4.3 4.3 0.00 0.00 0.00 51 1035.0
20191016025933 41 173 4.3 4.3 0.00 0.00 0.00 50 1035.1
20191016025829 41 173 3.5 4.3 0.00 0.00 0.00 50 1035.1
20191016025734 41 173 3.5 4.3 0.00 0.00 0.00 50 1035.1
20191016025630 41 173 4.3 4.3 0.00 0.00 0.00 50 1035.1
20191016025531 41 175 3.5 4.3 0.00 0.00 0.00 50 1035.1
20191016025427 42 166 3.5 4.3 0.00 0.00 0.00 50 1035.1
20191016025328 42 164 3.5 4.3 0.00 0.00 0.00 50 1035.2
20191016025244 42 163 3.5 4.3 0.00 0.00 0.00 50 1035.1
20191016025125 42 161 3.5 4.3 0.00 0.00 0.00 50 1035.1
20191016025025 42 160 3.5 4.3 0.00 0.00 0.00 50 1035.1
20191016024927 42 150 3.5 4.3 0.00 0.00 0.00 50 1035.1
20191016024842 42 148 3.5 4.3 0.00 0.00 0.00 50 1035.1
20191016024743 42 143 3.5 4.3 0.00 0.00 0.00 50 1035.1
20191016024639 42 137 3.5 4.3 0.00 0.00 0.00 50 1035.1
20191016024540 42 136 3.5 4.3 0.00 0.00 0.00 50 1035.1
20191016024436 42 136 3.5 4.3 0.00 0.00 0.00 50 1035.1
20191016024341 42 136 2.6 3.5 0.00 0.00 0.00 50 1035.2
20191016024236 42 136 2.6 3.5 0.00 0.00 0.00 50 1035.2
20191016024140 42 135 2.6 3.5 0.00 0.00 0.00 50 1035.2
20191016024035 42 131 2.6 2.6 0.00 0.00 0.00 50 1035.1
20191016023935 42 130 2.6 2.6 0.00 0.00 0.00 50 1035.1
20191016023831 42 126 1.7 2.6 0.00 0.00 0.00 50 1035.0
20191016023735 42 121 1.7 2.6 0.00 0.00 0.00 50 1035.1
20191016023634 42 118 0.9 2.6 0.00 0.00 0.00 50 1035.1
20191016023534 42 118 1.7 2.6 0.00 0.00 0.00 50 1035.1
20191016023433 42 119 1.7 2.6 0.00 0.00 0.00 50 1035.1
20191016023333 42 119 1.7 2.6 0.00 0.00 0.00 50 1035.1
20191016023231 42 118 1.7 2.6 0.00 0.00 0.00 50 1035.1
20191016023135 42 119 0.9 2.6 0.00 0.00 0.00 49 1035.1
20191016023037 42 119 1.7 2.6 0.00 0.00 0.00 49 1035.0
20191016022937 42 118 1.7 2.6 0.00 0.00 0.00 49 1035.0
20191016022836 42 118 1.7 2.6 0.00 0.00 0.00 49 1035.0
20191016022736 42 118 1.7 2.6 0.00 0.00 0.00 49 1035.0
20191016022634 42 118 2.6 2.6 0.00 0.00 0.00 49 1034.9
20191016022537 43 116 1.7 2.6 0.00 0.00 0.00 49 1035.0
20191016022436 43 115 0.9 2.6 0.00 0.00 0.00 49 1034.9
20191016022340 43 114 0.0 2.6 0.00 0.00 0.00 49 1035.0
20191016022236 43 114 0.0 2.6 0.00 0.00 0.00 49 1034.9
20191016022137 43 114 0.0 2.6 0.00 0.00 0.00 49 1034.9
20191016022033 43 114 0.0 2.6 0.00 0.00 0.00 49 1034.9
20191016021934 43 114 0.9 2.6 0.00 0.00 0.00 49 1034.8
20191016021830 43 114 1.7 2.6 0.00 0.00 0.00 49 1034.9
20191016021734 42 114 1.7 2.6 0.00 0.00 0.00 49 1034.9
20191016021633 42 113 1.7 2.6 0.00 0.00 0.00 49 1034.9
20191016021534 42 113 0.9 1.7 0.00 0.00 0.00 49 1034.9
20191016021431 42 113 0.9 1.7 0.00 0.00 0.00 49 1035.0
20191016021331 42 113 0.0 1.7 0.00 0.00 0.00 49 1034.9
20191016021227 43 113 0.9 1.7 0.00 0.00 0.00 49 1034.9
20191016021131 42 113 0.0 1.7 0.00 0.00 0.00 49 1034.9
20191016021030 42 113 0.9 1.7 0.00 0.00 0.00 49 1034.9
20191016020931 43 113 0.0 1.7 0.00 0.00 0.00 49 1034.9
20191016020844 43 113 0.0 1.7 0.00 0.00 0.00 49 1034.8
20191016020725 43 113 0.9 1.7 0.00 0.00 0.00 49 1034.8
20191016020641 43 106 0.0 1.7 0.00 0.00 0.00 49 1034.8
20191016020542 43 106 0.9 1.7 0.00 0.00 0.00 49 1034.8
20191016020442 43 105 0.0 1.7 0.00 0.00 0.00 49 1034.7
20191016020322 43 105 0.0 1.7 0.00 0.00 0.00 49 1034.7
20191016020241 43 105 0.9 1.7 0.00 0.00 0.00 49 1034.8
20191016020141 43 105 0.9 1.7 0.00 0.00 0.00 49 1034.7
20191016020036 43 105 0.0 1.7 0.00 0.00 0.00 49 1034.7
20191016015940 43 105 0.0 1.7 0.00 0.00 0.00 49 1034.8
20191016015835 43 105 0.0 0.9 0.00 0.00 0.00 49 1034.8
20191016015743 43 105 0.0 2.6 0.00 0.00 0.00 49 1034.8
20191016015639 43 105 0.0 3.5 0.00 0.00 0.00 48 1034.7
20191016015539 43 103 0.0 4.3 0.00 0.00 0.00 48 1034.7
20191016015435 43 104 0.0 4.3 0.00 0.00 0.00 48 1034.8
20191016015336 43 103 0.0 4.3 0.00 0.00 0.00 48 1035.5
20191016015232 43 104 0.0 4.3 0.00 0.00 0.00 48 1035.5
20191016015136 43 104 0.0 4.3 0.00 0.00 0.00 48 1035.4
20191016015035 44 103 0.0 4.3 0.00 0.00 0.00 48 1035.5
20191016014936 44 103 0.9 4.3 0.00 0.00 0.00 48 1035.5
20191016014832 44 101 1.7 4.3 0.00 0.00 0.00 48 1035.5
20191016014734 44 92 2.6 4.3 0.00 0.00 0.00 48 1035.4
20191016014629 44 122 1.7 3.5 0.00 0.00 0.00 48 1035.4
20191016014530 43 160 1.7 3.5 0.00 0.00 0.00 48 1035.4
20191016014430 43 111 0.9 2.6 0.00 0.00 0.00 48 1035.4
20191016014331 43 65 0.9 1.7 0.00 0.00 0.00 48 1035.4
20191016014227 44 105 0.9 1.7 0.00 0.00 0.00 48 1035.4
20191016014128 44 101 0.9 1.7 0.00 0.00 0.00 48 1035.4
20191016014044 44 90 0.0 3.5 0.00 0.00 0.00 48 1035.4
20191016013925 44 254 0.9 3.5 0.00 0.00 0.00 48 1035.4
20191016013825 44 113 0.9 3.5 0.00 0.00 0.00 48 1035.3
20191016013726 44 101 0.9 3.5 0.00 0.00 0.00 48 1035.3
20191016013642 44 100 0.0 3.5 0.00 0.00 0.00 48 1035.3
20191016013543 44 98 0.0 3.5 0.00 0.00 0.00 48 1035.3
20191016013439 44 92 0.0 3.5 0.00 0.00 0.00 48 1035.3
20191016013340 44 92 0.9 3.5 0.00 0.00 0.00 47 1035.2
20191016013236 44 91 1.7 3.5 0.00 0.00 0.00 47 1035.3
20191016013142 44 91 1.7 3.5 0.00 0.00 0.00 47 1035.2
20191016013036 44 94 1.7 3.5 0.00 0.00 0.00 48 1035.1
20191016012940 44 95 1.7 3.5 0.00 0.00 0.00 48 1035.1
20191016012836 44 102 0.9 3.5 0.00 0.00 0.00 48 1035.1
20191016012737 44 109 0.9 3.5 0.00 0.00 0.00 48 1035.1
20191016012633 44 108 0.9 3.5 0.00 0.00 0.00 47 1035.1
20191016012534 44 108 0.0 3.5 0.00 0.00 0.00 47 1035.1
20191016012434 44 107 0.0 3.5 0.00 0.00 0.00 47 1035.2
20191016012334 44 107 1.7 3.5 0.00 0.00 0.00 47 1035.1
20191016012233 44 108 1.7 3.5 0.00 0.00 0.00 47 1035.2
20191016012133 44 108 1.7 3.5 0.00 0.00 0.00 47 1035.2
20191016012032 44 108 0.9 2.6 0.00 0.00 0.00 47 1035.1
20191016011933 44 108 0.9 2.6 0.00 0.00 0.00 47 1035.0
20191016011833 44 107 0.9 2.6 0.00 0.00 0.00 47 1035.0
20191016011734 44 108 0.9 2.6 0.00 0.00 0.00 47 1035.0
20191016011630 44 107 0.9 2.6 0.00 0.00 0.00 47 1034.9
20191016011531 44 108 1.7 2.6 0.00 0.00 0.00 47 1034.9
20191016011427 44 108 1.7 2.6 0.00 0.00 0.00 47 1034.9
20191016011328 44 107 0.9 1.7 0.00 0.00 0.00 47 1034.8
20191016011244 44 107 0.9 3.5 0.00 0.00 0.00 47 1034.7
20191016011129 44 107 0.0 3.5 0.00 0.00 0.00 47 1034.8
20191016011025 44 108 0.0 3.5 0.00 0.00 0.00 47 1034.8
20191016010926 44 108 0.0 3.5 0.00 0.00 0.00 47 1034.8
20191016010838 44 108 0.0 3.5 0.00 0.00 0.00 47 1034.7
20191016010739 44 107 0.0 3.5 0.00 0.00 0.00 47 1034.7
20191016010635 44 108 0.0 3.5 0.00 0.00 0.00 47 1034.7
20191016010536 44 107 0.0 3.5 0.00 0.00 0.00 47 1034.6
20191016010436 44 107 1.7 3.5 0.00 0.00 0.00 47 1034.6
20191016010336 44 107 2.6 3.5 0.00 0.00 0.00 47 1034.6
20191016010234 44 94 1.7 3.5 0.00 0.00 0.00 47 1034.7
20191016010139 44 89 1.7 4.3 0.00 0.00 0.00 46 1034.7
20191016010033 45 90 2.6 5.2 0.00 0.00 0.00 47 1034.6
20191016005937 45 103 1.7 5.2 0.00 0.00 0.00 46 1034.6
20191016005842 45 113 0.9 5.2 0.00 0.00 0.00 46 1034.5
20191016005742 45 169 0.9 5.2 0.00 0.00 0.00 46 1034.5
20191016005638 45 296 0.9 5.2 0.00 0.00 0.00 46 1034.5
20191016005539 45 105 1.7 5.2 0.00 0.00 0.00 45 1034.5
20191016005435 45 113 1.7 5.2 0.00 0.00 0.00 45 1034.5
20191016005336 45 110 2.6 6.1 0.00 0.00 0.00 46 1034.4
20191016005232 45 80 3.5 6.1 0.00 0.00 0.00 45 1034.4
20191016005136 45 89 3.5 6.1 0.00 0.00 0.00 45 1034.5
20191016005035 46 91 3.5 6.1 0.00 0.00 0.00 45 1034.4
20191016004935 46 99 2.6 6.1 0.00 0.00 0.00 45 1034.5
20191016004834 46 82 2.6 6.1 0.00 0.00 0.00 44 1034.4
20191016004735 46 101 0.9 6.1 0.00 0.00 0.00 44 1034.5
20191016004631 46 136 2.6 6.1 0.00 0.00 0.00 43 1034.3
20191016004536 46 107 2.6 6.1 0.00 0.00 0.00 43 1034.3
20191016004435 47 91 0.9 6.1 0.00 0.00 0.00 43 1034.3
20191016004336 47 70 0.9 6.1 0.00 0.00 0.00 43 1034.2
20191016004232 47 19 0.9 7.8 0.00 0.00 0.00 43 1034.3
20191016004133 47 58 0.0 7.8 0.00 0.00 0.00 43 1034.3
20191016004029 47 167 0.0 7.8 0.00 0.00 0.00 43 1034.4
20191016003930 47 321 0.9 7.8 0.00 0.00 0.00 43 1034.4
20191016003830 47 86 0.9 7.8 0.00 0.00 0.00 43 1034.3
20191016003731 47 86 0.9 7.8 0.00 0.00 0.00 43 1034.4
20191016003627 47 97 2.6 7.8 0.00 0.00 0.00 43 1034.3
20191016003528 47 77 3.5 7.8 0.00 0.00 0.00 42 1034.3
20191016003445 47 69 4.3 7.8 0.00 0.00 0.00 42 1034.3
20191016003345 47 83 3.5 7.8 0.00 0.00 0.00 42 1034.2
20191016003241 48 74 5.2 7.8 0.00 0.00 0.00 42 1034.2
20191016003127 48 82 5.2 7.8 0.00 0.00 0.00 41 1034.2
20191016003043 48 84 4.3 7.8 0.00 0.00 0.00 41 1034.1
20191016002943 48 96 2.6 4.3 0.00 0.00 0.00 40 1034.1
20191016002839 48 101 2.6 4.3 0.00 0.00 0.00 40 1034.1
20191016002740 48 110 1.7 4.3 0.00 0.00 0.00 41 1034.0
20191016002636 48 93 1.7 4.3 0.00 0.00 0.00 40 1034.0
20191016002541 48 102 1.7 4.3 0.00 0.00 0.00 40 1034.1
20191016002437 48 92 1.7 4.3 0.00 0.00 0.00 40 1034.1
20191016002337 48 99 2.6 4.3 0.00 0.00 0.00 40 1034.0
20191016002236 48 105 2.6 4.3 0.00 0.00 0.00 40 1034.1
20191016002137 48 107 1.7 4.3 0.00 0.00 0.00 40 1034.0
20191016002033 48 98 1.7 4.3 0.00 0.00 0.00 40 1034.0
20191016001934 48 107 2.6 4.3 0.00 0.00 0.00 40 1034.0
20191016001834 49 99 2.6 4.3 0.00 0.00 0.00 40 1033.9
20191016001735 49 98 2.6 4.3 0.00 0.00 0.00 40 1033.9
20191016001631 49 88 1.7 4.3 0.00 0.00 0.00 39 1033.9
20191016001532 49 98 4.3 4.3 0.00 0.00 0.00 39 1033.8
20191016001428 49 86 3.5 5.2 0.00 0.00 0.00 39 1033.8
20191016001329 49 92 2.6 5.2 0.00 0.00 0.00 39 1033.8
20191016001229 49 82 3.5 5.2 0.00 0.00 0.00 39 1033.8
20191016001130 49 85 2.6 6.1 0.00 0.00 0.00 39 1033.8
20191016001026 49 91 2.6 7.8 0.00 0.00 0.00 39 1033.7
20191016000927 49 88 1.7 7.8 0.00 0.00 0.00 39 1033.8
20191016000843 49 91 2.6 7.8 0.00 0.00 0.00 39 1033.8
20191016000744 49 92 3.5 7.8 0.00 0.00 0.00 39 1033.7
20191016000640 49 83 3.5 7.8 0.00 0.00 0.00 39 1033.7
20191016000545 49 72 3.5 7.8 0.00 0.00 0.00 39 1033.7
20191016000441 49 82 4.3 7.8 0.00 0.00 0.00 39 1033.8
20191016000342 49 63 4.3 7.8 0.00 0.00 0.00 39 1033.8
20191016000238 49 67 5.2 7.8 0.00 0.00 0.00 39 1033.7
20191016000140 49 87 4.3 7.8 0.00 0.00 0.00 39 1033.7
20191016000035 49 84 5.2 7.8 0.00 0.00 0.00 39 1033.7
20191015235936 49 79 6.1 7.8 0.00 0.00 0.00 39 1033.7
20191015235836 49 68 5.2 7.8 0.00 0.00 0.00 39 1033.7
20191015235737 49 90 4.3 7.0 0.00 0.00 0.00 39 1033.8
20191015235633 50 76 5.2 7.0 0.00 0.00 0.00 39 1033.6
20191015235534 50 86 5.2 7.0 0.00 0.00 0.00 39 1033.6
20191015235430 50 100 3.5 5.2 0.00 0.00 0.00 39 1033.5
20191015235331 50 90 4.3 6.1 0.00 0.00 0.00 39 1033.5
20191015235231 50 89 4.3 6.1 0.00 0.00 0.00 38 1033.5
20191015235132 50 78 2.6 6.1 0.00 0.00 0.00 38 1033.4
20191015235028 50 119 3.5 6.1 0.00 0.00 0.00 38 1033.4
20191015234929 50 103 3.5 6.1 0.00 0.00 0.00 38 1033.4
20191015234845 50 110 3.5 6.1 0.00 0.00 0.00 38 1033.4
20191015234726 50 87 3.5 6.1 0.00 0.00 0.00 38 1033.4
20191015234642 50 74 2.6 6.1 0.00 0.00 0.00 38 1033.4
20191015234527 50 92 3.5 6.1 0.00 0.00 0.00 38 1033.4
20191015234443 50 98 4.3 6.1 0.00 0.00 0.00 38 1033.4
20191015234344 50 92 2.6 4.3 0.00 0.00 0.00 38 1033.3
20191015234240 50 93 2.6 5.2 0.00 0.00 0.00 38 1033.3
20191015234141 50 85 2.6 5.2 0.00 0.00 0.00 38 1033.3
20191015234037 50 101 2.6 5.2 0.00 0.00 0.00 38 1033.2
20191015233938 50 109 2.6 5.2 0.00 0.00 0.00 38 1033.2
20191015233838 50 103 1.7 5.2 0.00 0.00 0.00 38 1033.1
20191015233738 50 244 0.9 5.2 0.00 0.00 0.00 38 1033.0
20191015233637 50 220 1.7 7.8 0.00 0.00 0.00 38 1033.0
20191015233538 50 118 1.7 7.8 0.00 0.00 0.00 38 1033.0
20191015233434 50 134 1.7 7.8 0.00 0.00 0.00 38 1033.0
20191015233335 50 106 4.3 8.7 0.00 0.00 0.00 38 1033.0
20191015233235 50 102 3.5 8.7 0.00 0.00 0.00 38 1033.0
20191015233136 50 91 3.5 9.6 0.00 0.00 0.00 38 1033.2
20191015233034 50 88 2.6 9.6 0.00 0.00 0.00 38 1033.1
20191015232933 50 71 2.6 9.6 0.00 0.00 0.00 38 1033.2
20191015232832 50 109 5.2 9.6 0.00 0.00 0.00 38 1033.1
20191015232735 50 94 5.2 9.6 0.00 0.00 0.00 38 1033.0
20191015232634 50 103 4.3 9.6 0.00 0.00 0.00 38 1032.9
20191015232542 50 149 4.3 9.6 0.00 0.00 0.00 38 1032.9
20191015232438 50 166 4.3 9.6 0.00 0.00 0.00 38 1032.9
20191015232339 51 102 7.0 9.6 0.00 0.00 0.00 37 1032.9
20191015232235 51 103 7.8 9.6 0.00 0.00 0.00 37 1032.9
20191015232135 51 79 7.8 9.6 0.00 0.00 0.00 37 1032.9
20191015232031 51 71 6.1 9.6 0.00 0.00 0.00 37 1032.8
20191015231935 51 69 2.6 6.1 0.00 0.00 0.00 37 1032.8
20191015231834 51 294 1.7 5.2 0.00 0.00 0.00 37 1032.7
20191015231735 51 122 2.6 5.2 0.00 0.00 0.00 37 1032.6
20191015231631 51 98 2.6 5.2 0.00 0.00 0.00 37 1032.6
20191015231532 51 126 0.9 5.2 0.00 0.00 0.00 37 1032.6
20191015231428 51 182 1.7 5.2 0.00 0.00 0.00 37 1032.7
20191015231329 51 79 4.3 5.2 0.00 0.00 0.00 37 1032.7
20191015231229 51 92 2.6 5.2 0.00 0.00 0.00 37 1032.8
20191015231130 51 272 2.6 7.8 0.00 0.00 0.00 37 1032.7
20191015231026 51 259 0.9 7.8 0.00 0.00 0.00 37 1032.7
20191015230927 51 320 1.7 8.7 0.00 0.00 0.00 37 1032.7
20191015230823 51 192 1.7 8.7 0.00 0.00 0.00 37 1032.7
20191015230727 51 206 1.7 8.7 0.00 0.00 0.00 37 1032.7
20191015230627 51 107 3.5 8.7 0.00 0.00 0.00 37 1032.7
20191015230528 51 87 3.5 8.7 0.00 0.00 0.00 37 1032.7
20191015230444 51 70 2.6 9.6 0.00 0.00 0.00 37 1032.7
20191015230345 51 80 4.3 9.6 0.00 0.00 0.00 37 1032.6
20191015230241 51 73 6.1 9.6 0.00 0.00 0.00 37 1032.6
20191015230143 51 74 5.2 9.6 0.00 0.00 0.00 37 1032.6
20191015230038 51 149 5.2 9.6 0.00 0.00 0.00 36 1032.6
20191015225943 51 86 4.3 9.6 0.00 0.00 0.00 36 1032.6
20191015225838 52 102 4.3 9.6 0.00 0.00 0.00 36 1032.6
20191015225742 52 107 2.6 9.6 0.00 0.00 0.00 36 1033.4
20191015225638 52 134 4.3 9.6 0.00 0.00 0.00 36 1033.5
20191015225539 52 107 5.2 9.6 0.00 0.00 0.00 36 1033.4
20191015225435 52 96 3.5 7.8 0.00 0.00 0.00 36 1033.4
20191015225336 53 246 1.7 5.2 0.00 0.00 0.00 35 1033.4
20191015225236 53 178 2.6 5.2 0.00 0.00 0.00 35 1033.4
20191015225136 53 117 3.5 5.2 0.00 0.00 0.00 35 1033.3
20191015225035 53 61 1.7 4.3 0.00 0.00 0.00 36 1033.3
20191015224935 53 115 0.9 7.8 0.00 0.00 0.00 36 1033.4
20191015224834 52 38 0.9 7.8 0.00 0.00 0.00 36 1033.4
20191015224734 52 40 0.9 7.8 0.00 0.00 0.00 36 1033.4
20191015224637 52 95 0.9 7.8 0.00 0.00 0.00 36 1033.4
20191015224538 52 96 1.7 7.8 0.00 0.00 0.00 36 1033.4
20191015224434 52 78 0.9 9.6 0.00 0.00 0.00 36 1033.3
20191015224335 52 109 0.9 9.6 0.00 0.00 0.00 36 1033.3
20191015224231 52 107 0.9 9.6 0.00 0.00 0.00 35 1033.3
20191015224132 52 39 5.2 9.6 0.00 0.00 0.00 35 1033.3
20191015224028 53 67 4.3 9.6 0.00 0.00 0.00 35 1033.3
20191015223933 53 36 1.7 9.6 0.00 0.00 0.00 35 1033.2
20191015223829 53 312 3.5 9.6 0.00 0.00 0.00 35 1033.3
20191015223730 53 90 5.2 9.6 0.00 0.00 0.00 34 1033.3
20191015223626 54 86 6.1 9.6 0.00 0.00 0.00 34 1033.3
20191015223527 54 83 5.2 9.6 0.00 0.00 0.00 33 1033.3
20191015223443 54 63 4.3 7.8 0.00 0.00 0.00 33 1033.3
20191015223328 54 5 1.7 7.0 0.00 0.00 0.00 34 1033.3
20191015223223 54 51 3.5 7.0 0.00 0.00 0.00 35 1033.3
20191015223128 54 360 3.5 7.0 0.00 0.00 0.00 35 1033.3
20191015223043 53 19 4.3 10.4 0.00 0.00 0.00 35 1033.2
20191015222923 53 17 1.7 10.4 0.00 0.00 0.00 35 1033.2
20191015222842 53 18 2.6 10.4 0.00 0.00 0.00 35 1033.3
20191015222743 53 74 3.5 10.4 0.00 0.00 0.00 35 1033.3
20191015222643 53 18 3.5 10.4 0.00 0.00 0.00 35 1033.4
20191015222544 53 76 2.6 10.4 0.00 0.00 0.00 34 1033.4
20191015222439 53 52 3.5 10.4 0.00 0.00 0.00 34 1033.2
20191015222343 53 95 4.3 10.4 0.00 0.00 0.00 34 1033.2
20191015222239 54 87 7.0 10.4 0.00 0.00 0.00 34 1033.2
20191015222139 54 74 7.0 10.4 0.00 0.00 0.00 34 1033.1
20191015222037 54 97 5.2 10.4 0.00 0.00 0.00 34 1033.1
20191015221924 54 53 1.7 4.3 0.00 0.00 0.00 35 1033.2
20191015221843 54 14 0.9 4.3 0.00 0.00 0.00 35 1033.2
20191015221723 54 276 0.9 3.5 0.00 0.00 0.00 36 1033.2
20191015221643 54 21 1.7 3.5 0.00 0.00 0.00 36 1033.2
20191015221543 53 51 0.9 2.6 0.00 0.00 0.00 36 1033.2
20191015221439 53 198 0.9 2.6 0.00 0.00 0.00 35 1033.2
20191015221323 53 217 1.7 2.6 0.00 0.00 0.00 35 1033.1
20191015221243 53 242 0.9 3.5 0.00 0.00 0.00 35 1033.1
20191015221122 53 249 0.9 3.5 0.00 0.00 0.00 36 1033.1
20191015221042 53 212 0.9 3.5 0.00 0.00 0.00 36 1033.2
20191015220943 53 63 0.0 5.2 0.00 0.00 0.00 36 1033.2
20191015220839 53 60 1.7 5.2 0.00 0.00 0.00 36 1033.2
20191015220740 53 60 1.7 5.2 0.00 0.00 0.00 36 1033.3
20191015220640 53 61 0.9 5.2 0.00 0.00 0.00 36 1033.2
20191015220541 53 61 0.9 6.1 0.00 0.00 0.00 36 1033.2
20191015220437 53 64 1.7 6.1 0.00 0.00 0.00 35 1033.1
20191015220338 53 89 0.9 6.1 0.00 0.00 0.00 35 1033.0
20191015220234 53 161 0.9 6.1 0.00 0.00 0.00 35 1033.0
20191015220135 53 110 2.6 6.1 0.00 0.00 0.00 34 1033.1
20191015220036 54 108 3.5 6.1 0.00 0.00 0.00 34 1033.1
20191015215940 54 94 2.6 6.1 0.00 0.00 0.00 33 1033.0
20191015215839 55 84 0.9 6.1 0.00 0.00 0.00 32 1032.9
20191015215740 56 262 0.9 6.1 0.00 0.00 0.00 32 1033.0
20191015215636 57 92 2.6 6.1 0.00 0.00 0.00 31 1033.0
20191015215537 57 90 2.6 5.2 0.00 0.00 0.00 32 1033.0
20191015215433 57 74 1.7 5.2 0.00 0.00 0.00 32 1033.0
20191015215337 57 16 3.5 5.2 0.00 0.00 0.00 33 1033.0
20191015215236 57 15 2.6 5.2 0.00 0.00 0.00 33 1032.9
20191015215137 57 360 3.5 5.2 0.00 0.00 0.00 33 1032.9
20191015215033 56 17 3.5 5.2 0.00 0.00 0.00 33 1032.9
20191015214934 56 67 1.7 4.3 0.00 0.00 0.00 33 1032.9
20191015214830 56 55 0.9 4.3 0.00 0.00 0.00 33 1033.0
20191015214733 56 319 1.7 4.3 0.00 0.00 0.00 33 1033.0
20191015214633 56 304 1.7 4.3 0.00 0.00 0.00 34 1033.0
20191015214534 55 331 0.9 5.2 0.00 0.00 0.00 34 1033.0
20191015214430 55 13 2.6 5.2 0.00 0.00 0.00 34 1033.0
20191015214331 55 331 0.9 5.2 0.00 0.00 0.00 34 1033.0
20191015214227 54 125 0.9 5.2 0.00 0.00 0.00 35 1033.0
20191015214128 54 54 4.3 5.2 0.00 0.00 0.00 35 1032.9
20191015214029 54 30 3.5 5.2 0.00 0.00 0.00 35 1032.8
20191015213930 53 360 1.7 6.1 0.00 0.00 0.00 35 1033.0
20191015213826 53 360 2.6 6.1 0.00 0.00 0.00 36 1033.0
20191015213730 53 33 3.5 6.1 0.00 0.00 0.00 36 1033.0
20191015213626 53 25 1.7 6.1 0.00 0.00 0.00 36 1032.9
20191015213527 52 9 3.5 6.1 0.00 0.00 0.00 36 1032.9
20191015213440 52 42 2.6 6.1 0.00 0.00 0.00 36 1032.8
20191015213345 52 130 2.6 6.1 0.00 0.00 0.00 37 1032.7
20191015213240 51 13 3.5 6.1 0.00 0.00 0.00 37 1032.7
20191015213145 51 36 4.3 6.1 0.00 0.00 0.00 37 1032.7
20191015213040 51 112 2.6 5.2 0.00 0.00 0.00 37 1032.8
20191015212940 51 101 2.6 5.2 0.00 0.00 0.00 37 1032.9
20191015212839 52 94 2.6 5.2 0.00 0.00 0.00 36 1032.8
20191015212744 52 111 1.7 5.2 0.00 0.00 0.00 36 1032.8
20191015212640 52 108 1.7 5.2 0.00 0.00 0.00 36 1032.8
20191015212544 52 205 0.9 5.2 0.00 0.00 0.00 36 1032.8
20191015212440 52 279 1.7 5.2 0.00 0.00 0.00 36 1032.8
20191015212341 52 157 1.7 5.2 0.00 0.00 0.00 36 1032.8
20191015212237 52 57 0.9 5.2 0.00 0.00 0.00 36 1032.7
20191015212138 52 199 0.9 5.2 0.00 0.00 0.00 37 1032.8
20191015212038 52 217 2.6 5.2 0.00 0.00 0.00 38 1032.7
20191015211938 52 209 3.5 5.2 0.00 0.00 0.00 37 1032.8
20191015211835 52 158 4.3 5.2 0.00 0.00 0.00 37 1032.8
20191015211739 52 167 2.6 5.2 0.00 0.00 0.00 37 1032.8
20191015211639 52 179 2.6 5.2 0.00 0.00 0.00 37 1032.8
20191015211540 52 157 1.7 5.2 0.00 0.00 0.00 35 1032.8
20191015211439 53 258 0.9 5.2 0.00 0.00 0.00 35 1032.8
20191015211344 53 123 1.7 5.2 0.00 0.00 0.00 35 1032.8
20191015211240 53 269 2.6 5.2 0.00 0.00 0.00 34 1032.8
20191015211139 54 101 2.6 5.2 0.00 0.00 0.00 34 1032.7
20191015211039 54 80 3.5 6.1 0.00 0.00 0.00 34 1032.7
20191015210939 54 108 0.9 6.1 0.00 0.00 0.00 34 1032.7
20191015210839 54 101 0.9 6.1 0.00 0.00 0.00 34 1032.8
20191015210744 55 101 2.6 6.1 0.00 0.00 0.00 33 1032.7
20191015210640 55 81 3.5 6.1 0.00 0.00 0.00 33 1032.7
20191015210540 55 61 3.5 6.1 0.00 0.00 0.00 33 1032.7
20191015210439 56 132 2.6 6.1 0.00 0.00 0.00 33 1032.7
20191015210340 56 289 2.6 7.0 0.00 0.00 0.00 33 1032.7
20191015210236 55 28 3.5 7.0 0.00 0.00 0.00 34 1032.8
20191015210142 55 26 4.3 7.0 0.00 0.00 0.00 34 1032.8
20191015210036 55 32 0.9 7.0 0.00 0.00 0.00 34 1032.8
20191015205939 55 46 0.9 7.0 0.00 0.00 0.00 34 1032.9
20191015205839 55 24 0.0 7.0 0.00 0.00 0.00 34 1033.0
20191015205738 55 24 0.9 7.0 0.00 0.00 0.00 34 1033.1
20191015205638 55 22 3.5 7.0 0.00 0.00 0.00 35 1033.1
20191015205537 55 10 4.3 8.7 0.00 0.00 0.00 35 1033.1
20191015205441 54 17 4.3 8.7 0.00 0.00 0.00 36 1033.0
20191015205342 54 355 4.3 8.7 0.00 0.00 0.00 36 1033.1
20191015205239 53 22 1.7 8.7 0.00 0.00 0.00 37 1033.0
20191015205140 53 346 0.9 9.6 0.00 0.00 0.00 37 1033.0
20191015205036 53 57 0.9 11.3 0.00 0.00 0.00 37 1032.9
20191015204937 52 33 2.6 11.3 0.00 0.00 0.00 37 1033.0
20191015204836 52 29 2.6 11.3 0.00 0.00 0.00 38 1032.9
20191015204739 52 59 5.2 11.3 0.00 0.00 0.00 38 1032.9
20191015204639 51 48 4.3 11.3 0.00 0.00 0.00 38 1032.9
20191015204538 51 323 2.6 11.3 0.00 0.00 0.00 38 1032.9
20191015204438 51 254 1.7 11.3 0.00 0.00 0.00 39 1032.9
20191015204337 51 276 3.5 11.3 0.00 0.00 0.00 39 1032.9
20191015204236 51 19 7.0 11.3 0.00 0.00 0.00 39 1032.7
20191015204122 50 178 2.6 6.1 0.00 0.00 0.00 39 1032.9
20191015204042 51 91 2.6 7.0 0.00 0.00 0.00 39 1032.9
20191015203943 51 96 2.6 7.0 0.00 0.00 0.00 39 1032.8
20191015203839 51 105 1.7 7.0 0.00 0.00 0.00 38 1032.8
20191015203740 51 101 0.9 7.0 0.00 0.00 0.00 38 1032.7
20191015203634 51 292 0.9 7.0 0.00 0.00 0.00 38 1032.7
20191015203539 51 152 0.9 7.0 0.00 0.00 0.00 38 1032.7
20191015203433 51 165 0.9 7.0 0.00 0.00 0.00 38 1032.8
20191015203334 51 30 1.7 7.0 0.00 0.00 0.00 38 1032.8
20191015203230 51 53 5.2 7.8 0.00 0.00 0.00 38 1032.8
20191015203132 51 74 2.6 7.8 0.00 0.00 0.00 38 1032.8
20191015203027 51 88 0.9 7.8 0.00 0.00 0.00 39 1032.8
20191015202928 51 35 2.6 8.7 0.00 0.00 0.00 39 1032.9
20191015202828 51 59 2.6 8.7 0.00 0.00 0.00 39 1032.8
20191015202727 51 93 1.7 8.7 0.00 0.00 0.00 39 1032.9
20191015202644 51 64 3.5 8.7 0.00 0.00 0.00 39 1032.9
20191015202524 51 90 3.5 8.7 0.00 0.00 0.00 39 1032.9
20191015202443 51 84 4.3 8.7 0.00 0.00 0.00 39 1032.9
20191015202322 51 68 6.1 8.7 0.00 0.00 0.00 38 1032.9
20191015202226 51 111 5.2 8.7 0.00 0.00 0.00 39 1032.9
20191015202127 51 85 3.5 8.7 0.00 0.00 0.00 39 1032.8
20191015202044 51 61 1.7 8.7 0.00 0.00 0.00 38 1032.8
20191015201923 51 168 0.9 5.2 0.00 0.00 0.00 38 1032.9
20191015201843 51 128 1.7 5.2 0.00 0.00 0.00 38 1032.9
20191015201744 52 105 2.6 5.2 0.00 0.00 0.00 38 1032.8
20191015201640 52 341 1.7 3.5 0.00 0.00 0.00 37 1032.8
20191015201524 52 128 0.9 3.5 0.00 0.00 0.00 37 1032.9
20191015201444 52 267 1.7 3.5 0.00 0.00 0.00 37 1032.8
20191015201324 52 58 0.9 3.5 0.00 0.00 0.00 36 1032.9
20191015201240 52 102 0.9 3.5 0.00 0.00 0.00 37 1032.9
20191015201141 53 151 0.0 3.5 0.00 0.00 0.00 36 1032.8
20191015201037 53 151 1.7 3.5 0.00 0.00 0.00 35 1033.0
20191015200938 54 167 1.7 3.5 0.00 0.00 0.00 35 1033.0
20191015200838 54 163 1.7 3.5 0.00 0.00 0.00 34 1032.9
20191015200738 55 164 0.9 3.5 0.00 0.00 0.00 34 1032.8
20191015200637 55 12 0.9 3.5 0.00 0.00 0.00 33 1032.9
20191015200537 55 11 0.9 3.5 0.00 0.00 0.00 34 1032.9
20191015200436 55 13 0.0 2.6 0.00 0.00 0.00 34 1032.9
20191015200337 55 11 0.9 2.6 0.00 0.00 0.00 34 1033.0
20191015200237 55 11 1.7 3.5 0.00 0.00 0.00 34 1032.9
20191015200137 55 11 1.7 3.5 0.00 0.00 0.00 34 1033.1
20191015200036 55 355 0.9 3.5 0.00 0.00 0.00 34 1033.0
20191015195937 55 188 0.9 5.2 0.00 0.00 0.00 34 1033.1
20191015195833 55 301 1.7 5.2 0.00 0.00 0.00 34 1033.1
20191015195734 55 336 1.7 5.2 0.00 0.00 0.00 34 1033.1
20191015195630 54 336 2.6 5.2 0.00 0.00 0.00 35 1033.2
20191015195535 54 336 1.7 5.2 0.00 0.00 0.00 35 1033.1
20191015195431 54 355 2.6 5.2 0.00 0.00 0.00 35 1033.1
20191015195332 54 5 0.9 5.2 0.00 0.00 0.00 35 1033.2
20191015195228 54 319 1.7 5.2 0.00 0.00 0.00 35 1033.3
20191015195129 53 345 4.3 5.2 0.00 0.00 0.00 36 1033.3
20191015195045 53 327 2.6 5.2 0.00 0.00 0.00 36 1033.2
20191015194930 53 342 0.9 3.5 0.00 0.00 0.00 36 1033.2
20191015194826 53 213 0.9 5.2 0.00 0.00 0.00 37 1033.2
20191015194725 53 9 1.7 5.2 0.00 0.00 0.00 37 1033.3
20191015194645 52 9 1.7 5.2 0.00 0.00 0.00 37 1033.2
20191015194526 52 5 1.7 5.2 0.00 0.00 0.00 38 1033.2
20191015194442 52 111 1.7 5.2 0.00 0.00 0.00 37 1033.1
20191015194343 52 91 0.9 5.2 0.00 0.00 0.00 37 1033.3
20191015194243 52 91 0.9 5.2 0.00 0.00 0.00 38 1033.4
20191015194122 52 15 1.7 5.2 0.00 0.00 0.00 37 1033.3
20191015194042 52 86 2.6 5.2 0.00 0.00 0.00 37 1033.3
20191015193943 52 94 2.6 4.3 0.00 0.00 0.00 37 1033.4
20191015193839 52 268 1.7 4.3 0.00 0.00 0.00 38 1033.4
20191015193740 52 271 2.6 4.3 0.00 0.00 0.00 38 1033.4
20191015193635 52 224 1.7 4.3 0.00 0.00 0.00 38 1033.5
20191015193544 52 236 0.9 4.3 0.00 0.00 0.00 38 1033.4
20191015193440 53 207 0.9 4.3 0.00 0.00 0.00 37 1033.5
20191015193341 53 208 2.6 4.3 0.00 0.00 0.00 37 1033.5
20191015193237 53 217 2.6 4.3 0.00 0.00 0.00 37 1033.5
20191015193137 53 195 0.9 4.3 0.00 0.00 0.00 38 1033.5
20191015193036 53 317 0.9 4.3 0.00 0.00 0.00 38 1033.5
20191015192939 53 322 0.0 4.3 0.00 0.00 0.00 38 1033.5
20191015192838 52 322 0.0 4.3 0.00 0.00 0.00 38 1033.5
20191015192738 52 322 0.9 4.3 0.00 0.00 0.00 39 1033.4
20191015192638 52 323 0.9 4.3 0.00 0.00 0.00 39 1033.4
20191015192537 52 333 0.9 4.3 0.00 0.00 0.00 39 1033.4
20191015192437 52 308 2.6 4.3 0.00 0.00 0.00 39 1033.4
20191015192338 51 309 2.6 4.3 0.00 0.00 0.00 40 1033.4
20191015192238 51 303 1.7 4.3 0.00 0.00 0.00 40 1033.4
20191015192141 51 321 0.9 2.6 0.00 0.00 0.00 40 1033.4
20191015192041 51 101 0.0 3.5 0.00 0.00 0.00 40 1033.4
20191015191942 51 99 0.0 3.5 0.00 0.00 0.00 40 1033.4
20191015191838 51 100 0.0 4.3 0.00 0.00 0.00 40 1033.4
20191015191739 51 100 0.9 4.3 0.00 0.00 0.00 40 1033.4
20191015191638 51 99 0.0 4.3 0.00 0.00 0.00 41 1033.5
20191015191538 50 355 0.0 4.3 0.00 0.00 0.00 41 1033.4
20191015191437 50 355 0.9 4.3 0.00 0.00 0.00 43 1033.4
20191015191337 50 355 1.7 4.3 0.00 0.00 0.00 43 1033.4
20191015191237 49 360 2.6 5.2 0.00 0.00 0.00 44 1033.4
20191015191137 49 26 2.6 5.2 0.00 0.00 0.00 44 1033.5
20191015191034 48 17 3.5 5.2 0.00 0.00 0.00 45 1033.4
20191015190941 48 30 3.5 7.8 0.00 0.00 0.00 45 1033.4
20191015190841 48 40 1.7 7.8 0.00 0.00 0.00 45 1033.5
20191015190741 47 28 0.9 7.8 0.00 0.00 0.00 45 1033.4
20191015190639 47 55 0.9 7.8 0.00 0.00 0.00 46 1033.5
20191015190539 47 96 2.6 7.8 0.00 0.00 0.00 46 1033.5
20191015190439 47 102 2.6 7.8 0.00 0.00 0.00 46 1033.5
20191015190344 47 59 1.7 7.8 0.00 0.00 0.00 46 1033.5
20191015190239 47 204 0.9 7.8 0.00 0.00 0.00 46 1033.5
20191015190145 47 180 2.6 7.8 0.00 0.00 0.00 46 1033.5
20191015190039 47 79 3.5 7.8 0.00 0.00 0.00 46 1033.5
20191015185941 47 109 2.6 4.3 0.00 0.00 0.00 46 1033.5
20191015185837 47 137 1.7 4.3 0.00 0.00 0.00 46 1033.6
20191015185737 47 118 1.7 4.3 0.00 0.00 0.00 46 1033.5
20191015185641 47 97 1.7 4.3 0.00 0.00 0.00 46 1033.6
20191015185523 48 109 0.9 4.3 0.00 0.00 0.00 45 1033.6
20191015185443 48 108 0.9 4.3 0.00 0.00 0.00 45 1033.5
20191015185344 48 98 0.9 4.3 0.00 0.00 0.00 45 1033.7
20191015185240 48 82 0.9 4.3 0.00 0.00 0.00 45 1033.7
20191015185141 48 86 2.6 4.3 0.00 0.00 0.00 45 1033.7
20191015185041 48 96 1.7 5.2 0.00 0.00 0.00 45 1033.7
20191015184940 48 107 2.6 5.2 0.00 0.00 0.00 45 1033.6
20191015184840 48 74 2.6 5.2 0.00 0.00 0.00 45 1033.5
20191015184739 48 148 0.9 5.2 0.00 0.00 0.00 45 1033.6
20191015184639 48 187 0.9 5.2 0.00 0.00 0.00 45 1033.5
20191015184540 48 205 1.7 5.2 0.00 0.00 0.00 44 1033.6
20191015184436 49 206 0.9 5.2 0.00 0.00 0.00 44 1033.6
20191015184341 49 136 0.9 5.2 0.00 0.00 0.00 44 1033.6
20191015184237 49 63 3.5 5.2 0.00 0.00 0.00 44 1033.6
20191015184137 49 101 1.7 5.2 0.00 0.00 0.00 43 1033.6
20191015184033 49 61 0.9 2.6 0.00 0.00 0.00 43 1033.6
20191015183934 50 164 1.7 2.6 0.00 0.00 0.00 43 1033.6
20191015183831 50 170 1.7 2.6 0.00 0.00 0.00 42 1033.6
20191015183736 50 206 1.7 2.6 0.00 0.00 0.00 43 1033.6
20191015183632 50 213 0.9 2.6 0.00 0.00 0.00 43 1033.6
20191015183533 50 242 0.0 3.5 0.00 0.00 0.00 44 1033.6
20191015183429 49 11 0.9 3.5 0.00 0.00 0.00 44 1033.6
20191015183330 49 11 0.9 3.5 0.00 0.00 0.00 45 1033.6
20191015183226 49 11 0.9 3.5 0.00 0.00 0.00 46 1033.6
20191015183128 48 11 1.7 3.5 0.00 0.00 0.00 46 1033.6
20191015183027 48 11 1.7 3.5 0.00 0.00 0.00 46 1033.6
20191015182932 48 340 0.9 5.2 0.00 0.00 0.00 46 1033.6
20191015182828 47 333 1.7 5.2 0.00 0.00 0.00 46 1033.6
20191015182728 47 314 2.6 6.1 0.00 0.00 0.00 47 1033.6
20191015182645 47 313 2.6 6.1 0.00 0.00 0.00 47 1033.6
20191015182526 46 338 0.0 6.1 0.00 0.00 0.00 47 1033.6
20191015182425 46 86 0.0 6.1 0.00 0.00 0.00 47 1033.6
20191015182325 46 86 1.7 6.1 0.00 0.00 0.00 47 1034.3
20191015182245 46 107 1.7 6.1 0.00 0.00 0.00 47 1034.3
20191015182126 47 53 1.7 6.1 0.00 0.00 0.00 46 1034.3
20191015182042 47 109 0.9 6.1 0.00 0.00 0.00 46 1034.5
20191015181943 47 166 2.6 6.1 0.00 0.00 0.00 45 1034.4
20191015181839 48 88 2.6 6.1 0.00 0.00 0.00 45 1034.5
20191015181722 49 206 0.9 4.3 0.00 0.00 0.00 44 1034.5
20191015181642 49 195 0.9 4.3 0.00 0.00 0.00 44 1034.5
20191015181541 49 122 0.9 4.3 0.00 0.00 0.00 43 1034.5
20191015181441 50 162 0.9 4.3 0.00 0.00 0.00 43 1034.5
20191015181340 50 163 0.9 4.3 0.00 0.00 0.00 43 1034.5
20191015181238 50 89 0.0 4.3 0.00 0.00 0.00 43 1034.5
20191015181127 50 53 2.6 4.3 0.00 0.00 0.00 44 1034.4
20191015181043 49 53 2.6 4.3 0.00 0.00 0.00 44 1034.5
20191015180943 49 29 0.9 4.3 0.00 0.00 0.00 44 1034.4
20191015180840 49 319 0.9 4.3 0.00 0.00 0.00 44 1034.4
20191015180738 49 325 2.6 4.3 0.00 0.00 0.00 44 1034.4
20191015180634 49 329 0.9 3.5 0.00 0.00 0.00 44 1034.5
20191015180534 49 300 1.7 3.5 0.00 0.00 0.00 44 1034.5
20191015180434 49 260 1.7 3.5 0.00 0.00 0.00 44 1034.4
20191015180336 49 292 1.7 4.3 0.00 0.00 0.00 44 1034.4
20191015180232 49 314 1.7 4.3 0.00 0.00 0.00 44 1034.4
20191015180134 49 261 0.9 4.3 0.00 0.00 0.00 44 1034.4
20191015180028 49 248 0.9 4.3 0.00 0.00 0.00 44 1034.5
20191015175930 49 245 1.7 4.3 0.00 0.00 0.00 44 1034.4
20191015175827 49 238 0.9 4.3 0.00 0.00 0.00 44 1034.5
20191015175731 49 229 0.9 4.3 0.00 0.00 0.00 44 1034.4
20191015175628 49 229 2.6 5.2 0.00 0.00 0.00 44 1034.5
20191015175528 49 302 3.5 5.2 0.00 0.00 0.00 44 1034.4
20191015175425 49 160 0.9 5.2 0.00 0.00 0.00 45 1034.5
20191015175326 49 328 0.9 5.2 0.00 0.00 0.00 45 1034.5
20191015175244 48 327 0.9 5.2 0.00 0.00 0.00 45 1034.5
20191015175129 48 327 0.9 5.2 0.00 0.00 0.00 45 1034.4
20191015175026 48 337 2.6 5.2 0.00 0.00 0.00 45 1034.5
20191015174926 48 349 2.6 5.2 0.00 0.00 0.00 46 1034.5
20191015174826 48 290 2.6 5.2 0.00 0.00 0.00 46 1034.4
20191015174727 47 325 0.9 5.2 0.00 0.00 0.00 46 1034.4
20191015174643 47 261 0.0 5.2 0.00 0.00 0.00 46 1034.4
20191015174543 47 333 1.7 5.2 0.00 0.00 0.00 47 1034.4
20191015174444 47 325 3.5 5.2 0.00 0.00 0.00 47 1034.4
20191015174323 47 219 0.9 2.6 0.00 0.00 0.00 47 1034.4
20191015174241 46 307 0.0 2.6 0.00 0.00 0.00 47 1034.3
20191015174125 46 307 0.9 2.6 0.00 0.00 0.00 47 1034.4
20191015174042 46 307 0.9 2.6 0.00 0.00 0.00 48 1034.4
20191015173941 46 307 1.7 2.6 0.00 0.00 0.00 48 1034.4
20191015173841 46 306 1.7 2.6 0.00 0.00 0.00 48 1034.4
20191015173726 46 318 1.7 2.6 0.00 0.00 0.00 48 1034.4
20191015173641 45 319 1.7 2.6 0.00 0.00 0.00 48 1034.4
20191015173526 45 22 0.9 2.6 0.00 0.00 0.00 49 1034.4
20191015173441 45 311 0.9 2.6 0.00 0.00 0.00 49 1034.4